Observation data for Claude 12 Southwest on 12/09/2018      Previous  Date       Current Mesonet Observations  Soil Data  Daily Summary Page  Observations in Plain Language
KCL1 090600Z 31002KT M03/M07 A303 RMK A01 T10311074  RH  072%=      5-min Rain = 0
KCL1 090601Z 31002KT M03/M07 A303 RMK A01 T10311073  RH  073%=      5-min Rain = 0
KCL1 090602Z 31002KT M03/M07 A303 RMK A01 T10311073  RH  073%=      5-min Rain = 0
KCL1 090603Z 31003KT M03/M07 A303 RMK A01 T10311073  RH  073%=      5-min Rain = 0
KCL1 090604Z 31003KT M03/M07 A303 RMK A01 T10311073  RH  073%=      5-min Rain = 0
KCL1 090605Z 30003KT M03/M07 A303 RMK A01 T10311073  RH  073%=      5-min Rain = 0
KCL1 090606Z 31003KT M03/M07 A303 RMK A01 T10311074  RH  072%=      5-min Rain = 0
KCL1 090607Z 31003KT M03/M07 A303 RMK A01 T10311074  RH  072%=      5-min Rain = 0
KCL1 090608Z 31004KT M03/M07 A303 RMK A01 T10311074  RH  072%=      5-min Rain = 0
KCL1 090609Z 31004KT M03/M07 A303 RMK A01 T10311073  RH  073%=      5-min Rain = 0
KCL1 090610Z 31004KT M03/M07 A303 RMK A01 T10311073  RH  073%=      5-min Rain = 0
KCL1 090611Z 31004KT M03/M07 A303 RMK A01 T10311074  RH  073%=      5-min Rain = 0
KCL1 090612Z 31004KT M03/M07 A303 RMK A01 T10311074  RH  072%=      5-min Rain = 0
KCL1 090613Z 31003KT M03/M07 A303 RMK A01 T10321074  RH  072%=      5-min Rain = 0
KCL1 090614Z 31003KT M03/M07 A303 RMK A01 T10321074  RH  073%=      5-min Rain = 0
KCL1 090615Z 31003KT M03/M07 A303 RMK A01 T10321074  RH  073%=      5-min Rain = 0
KCL1 090616Z 32003KT M03/M07 A303 RMK A01 T10321073  RH  073%=      5-min Rain = 0
KCL1 090617Z 31003KT M03/M07 A303 RMK A01 T10311073  RH  073%=      5-min Rain = 0
KCL1 090618Z 32003KT M03/M07 A303 RMK A01 T10321073  RH  073%=      5-min Rain = 0
KCL1 090619Z 32003KT M03/M07 A303 RMK A01 T10321073  RH  073%=      5-min Rain = 0
KCL1 090620Z 32003KT M03/M07 A303 RMK A01 T10321073  RH  073%=      5-min Rain = 0
KCL1 090621Z 32003KT M03/M07 A303 RMK A01 T10321073  RH  073%=      5-min Rain = 0
KCL1 090622Z 33004KT M03/M07 A303 RMK A01 T10321073  RH  073%=      5-min Rain = 0
KCL1 090623Z 33004KT M03/M07 A303 RMK A01 T10321073  RH  073%=      5-min Rain = 0
KCL1 090624Z 33004KT M03/M07 A303 RMK A01 T10321073  RH  073%=      5-min Rain = 0
KCL1 090625Z 33004KT M03/M07 A303 RMK A01 T10321073  RH  073%=      5-min Rain = 0
KCL1 090626Z 33005KT M03/M07 A303 RMK A01 T10311072  RH  073%=      5-min Rain = 0
KCL1 090627Z 33004KT M03/M07 A303 RMK A01 T10301073  RH  073%=      5-min Rain = 0
KCL1 090628Z 33004KT M03/M07 A303 RMK A01 T10311074  RH  072%=      5-min Rain = 0
KCL1 090629Z 33004KT M03/M07 A303 RMK A01 T10321074  RH  072%=      5-min Rain = 0
KCL1 090630Z 33005KT M03/M08 A303 RMK A01 T10321075  RH  072%=      5-min Rain = 0
KCL1 090631Z 33005KT M03/M08 A303 RMK A01 T10331075  RH  073%=      5-min Rain = 0
KCL1 090632Z 34005KT M03/M07 A303 RMK A01 T10321074  RH  073%=      5-min Rain = 0
KCL1 090633Z 33005KT M03/M08 A303 RMK A01 T10331075  RH  073%=      5-min Rain = 0
KCL1 090634Z 34004KT M03/M08 A303 RMK A01 T10341076  RH  073%=      5-min Rain = 0
KCL1 090635Z 33004KT M04/M08 A303 RMK A01 T10351077  RH  073%=      5-min Rain = 0
KCL1 090636Z 33005KT M04/M08 A303 RMK A01 T10361077  RH  074%=      5-min Rain = 0
KCL1 090637Z 33004KT M04/M08 A303 RMK A01 T10371076  RH  074%=      5-min Rain = 0
KCL1 090638Z 32004KT M04/M08 A303 RMK A01 T10371076  RH  074%=      5-min Rain = 0
KCL1 090639Z 32004KT M04/M08 A303 RMK A01 T10371076  RH  074%=      5-min Rain = 0
KCL1 090640Z 32004KT M04/M08 A303 RMK A01 T10371075  RH  075%=      5-min Rain = 0
KCL1 090641Z 32004KT M04/M08 A303 RMK A01 T10371075  RH  075%=      5-min Rain = 0
KCL1 090642Z 32004KT M04/M08 A303 RMK A01 T10371075  RH  075%=      5-min Rain = 0
KCL1 090643Z 32004KT M04/M08 A303 RMK A01 T10371075  RH  075%=      5-min Rain = 0
KCL1 090644Z 33003KT M04/M08 A303 RMK A01 T10371075  RH  075%=      5-min Rain = 0
KCL1 090645Z 33004KT M04/M08 A3029 RMK A01 T10371075  RH  075%=      5-min Rain = 0
KCL1 090646Z 33004KT M04/M08 A3029 RMK A01 T10371075  RH  075%=      5-min Rain = 0
KCL1 090647Z 33004KT M04/M08 A3029 RMK A01 T10371075  RH  075%=      5-min Rain = 0
KCL1 090648Z 33004KT M04/M08 A3029 RMK A01 T10381076  RH  075%=      5-min Rain = 0
KCL1 090649Z 33004KT M04/M08 A3029 RMK A01 T10381076  RH  075%=      5-min Rain = 0
KCL1 090650Z 33004KT M04/M08 A3029 RMK A01 T10381077  RH  075%=      5-min Rain = 0
KCL1 090651Z 33004KT M04/M08 A3029 RMK A01 T10391077  RH  075%=      5-min Rain = 0
KCL1 090652Z 33004KT M04/M08 A3029 RMK A01 T10391076  RH  075%=      5-min Rain = 0
KCL1 090653Z 33004KT M04/M08 A3029 RMK A01 T10391076  RH  075%=      5-min Rain = 0
KCL1 090654Z 33005KT M04/M08 A3029 RMK A01 T10391077  RH  075%=      5-min Rain = 0
KCL1 090655Z 33005KT M04/M08 A3029 RMK A01 T10391077  RH  075%=      5-min Rain = 0
KCL1 090656Z 33005KT M04/M08 A3029 RMK A01 T10401077  RH  075%=      5-min Rain = 0
KCL1 090657Z 33005KT M04/M08 A3029 RMK A01 T10391076  RH  075%=      5-min Rain = 0
KCL1 090658Z 32004KT M04/M08 A3029 RMK A01 T10391076  RH  076%=      5-min Rain = 0
KCL1 090659Z 31003KT M04/M08 A3029 RMK A01 T10391076  RH  076%=      5-min Rain = 0
KCL1 090700Z 31003KT M04/M08 A3029 RMK A01 T10391076  RH  075%=      5-min Rain = 0
KCL1 090701Z 31003KT M04/M08 A3029 RMK A01 T10391077  RH  075%=      5-min Rain = 0
KCL1 090702Z 31003KT M04/M08 A3029 RMK A01 T10401077  RH  075%=      5-min Rain = 0
KCL1 090703Z 31002KT M04/M08 A3029 RMK A01 T10401077  RH  076%=      5-min Rain = 0
KCL1 090704Z 31003KT M04/M08 A3029 RMK A01 T10391076  RH  076%=      5-min Rain = 0
KCL1 090705Z 30003KT M04/M08 A3029 RMK A01 T10401076  RH  076%=      5-min Rain = 0
KCL1 090706Z 31004KT M04/M08 A3029 RMK A01 T10401076  RH  076%=      5-min Rain = 0
KCL1 090707Z 31005KT M04/M08 A3029 RMK A01 T10391076  RH  076%=      5-min Rain = 0
KCL1 090708Z 30004KT M04/M07 A3029 RMK A01 T10371073  RH  076%=      5-min Rain = 0
KCL1 090709Z 30004KT M04/M07 A3029 RMK A01 T10361073  RH  075%=      5-min Rain = 0
KCL1 090710Z 31004KT M04/M07 A3029 RMK A01 T10361074  RH  075%=      5-min Rain = 0
KCL1 090711Z 31004KT M04/M07 A3029 RMK A01 T10361074  RH  075%=      5-min Rain = 0
KCL1 090712Z 31003KT M04/M08 A3029 RMK A01 T10361075  RH  075%=      5-min Rain = 0
KCL1 090713Z 31004KT M04/M08 A3029 RMK A01 T10361075  RH  075%=      5-min Rain = 0
KCL1 090714Z 31004KT M04/M08 A3029 RMK A01 T10361075  RH  075%=      5-min Rain = 0
KCL1 090715Z 31004KT M04/M08 A3029 RMK A01 T10361075  RH  075%=      5-min Rain = 0
KCL1 090716Z 31004KT M04/M08 A3029 RMK A01 T10361075  RH  075%=      5-min Rain = 0
KCL1 090717Z 30004KT M04/M07 A3029 RMK A01 T10361074  RH  075%=      5-min Rain = 0
KCL1 090718Z 30004KT M04/M08 A3029 RMK A01 T10361075  RH  074%=      5-min Rain = 0
KCL1 090719Z 31004KT M04/M08 A3029 RMK A01 T10361075  RH  074%=      5-min Rain = 0
KCL1 090720Z 30004KT M04/M08 A3029 RMK A01 T10371075  RH  074%=      5-min Rain = 0
KCL1 090721Z 31003KT M04/M08 A3029 RMK A01 T10371076  RH  074%=      5-min Rain = 0
KCL1 090722Z 31003KT M04/M08 A3029 RMK A01 T10381076  RH  075%=      5-min Rain = 0
KCL1 090723Z 31003KT M04/M08 A3029 RMK A01 T10381076  RH  075%=      5-min Rain = 0
KCL1 090724Z 31002KT M04/M08 A3029 RMK A01 T10391077  RH  075%=      5-min Rain = 0
KCL1 090725Z 31003KT M04/M08 A3029 RMK A01 T10391077  RH  075%=      5-min Rain = 0
KCL1 090726Z 31002KT M04/M08 A3029 RMK A01 T10401077  RH  075%=      5-min Rain = 0
KCL1 090727Z 31002KT M04/M08 A3029 RMK A01 T10411078  RH  075%=      5-min Rain = 0
KCL1 090728Z 30003KT M04/M08 A3029 RMK A01 T10421078  RH  076%=      5-min Rain = 0
KCL1 090729Z 31002KT M04/M08 A3029 RMK A01 T10421078  RH  076%=      5-min Rain = 0
KCL1 090730Z 29001KT M04/M08 A3029 RMK A01 T10421077  RH  077%=      5-min Rain = 0
KCL1 090731Z 32001KT M04/M08 A3029 RMK A01 T10421077  RH  077%=      5-min Rain = 0
KCL1 090732Z 31001KT M04/M08 A3029 RMK A01 T10421077  RH  077%=      5-min Rain = 0
KCL1 090733Z 31002KT M04/M08 A3029 RMK A01 T10421077  RH  077%=      5-min Rain = 0
KCL1 090734Z 32002KT M04/M08 A3029 RMK A01 T10421076  RH  077%=      5-min Rain = 0
KCL1 090735Z 31003KT M04/M08 A3029 RMK A01 T10421076  RH  077%=      5-min Rain = 0
KCL1 090736Z 30003KT M04/M08 A3029 RMK A01 T10411075  RH  077%=      5-min Rain = 0
KCL1 090737Z 30002KT M04/M08 A3029 RMK A01 T10411075  RH  077%=      5-min Rain = 0
KCL1 090738Z 31002KT M04/M08 A3029 RMK A01 T10401075  RH  077%=      5-min Rain = 0
KCL1 090739Z 29002KT M04/M08 A3029 RMK A01 T10401075  RH  077%=      5-min Rain = 0
KCL1 090740Z 28002KT M04/M07 A3029 RMK A01 T10381073  RH  076%=      5-min Rain = 0
KCL1 090741Z 28002KT M04/M07 A3028 RMK A01 T10371073  RH  076%=      5-min Rain = 0
KCL1 090742Z 28002KT M04/M07 A3028 RMK A01 T10361073  RH  075%=      5-min Rain = 0
KCL1 090743Z 31002KT M04/M07 A3028 RMK A01 T10361073  RH  075%=      5-min Rain = 0
KCL1 090744Z 32002KT M04/M07 A3028 RMK A01 T10361074  RH  075%=      5-min Rain = 0
KCL1 090745Z 32002KT M04/M08 A3028 RMK A01 T10361075  RH  075%=      5-min Rain = 0
KCL1 090746Z 32003KT M04/M08 A3028 RMK A01 T10381076  RH  075%=      5-min Rain = 0
KCL1 090747Z 33003KT M04/M08 A3028 RMK A01 T10381076  RH  075%=      5-min Rain = 0
KCL1 090748Z 32002KT M04/M08 A3028 RMK A01 T10391077  RH  075%=      5-min Rain = 0
KCL1 090749Z 32002KT M04/M08 A3028 RMK A01 T10401079  RH  075%=      5-min Rain = 0
KCL1 090750Z 32003KT M04/M08 A3028 RMK A01 T10421080  RH  075%=      5-min Rain = 0
KCL1 090751Z 32003KT M04/M08 A3028 RMK A01 T10441081  RH  075%=      5-min Rain = 0
KCL1 090752Z 32003KT M05/M08 A3028 RMK A01 T10461083  RH  075%=      5-min Rain = 0
KCL1 090753Z 32003KT M05/M09 A3028 RMK A01 T10481085  RH  075%=      5-min Rain = 0
KCL1 090754Z 32002KT M05/M09 A3028 RMK A01 T10501086  RH  076%=      5-min Rain = 0
KCL1 090755Z 32002KT M05/M09 A3028 RMK A01 T10511085  RH  077%=      5-min Rain = 0
KCL1 090756Z 32002KT M05/M09 A3028 RMK A01 T10521086  RH  077%=      5-min Rain = 0
KCL1 090757Z 32003KT M05/M09 A3028 RMK A01 T10531085  RH  078%=      5-min Rain = 0
KCL1 090758Z 33003KT M05/M09 A3028 RMK A01 T10531085  RH  078%=      5-min Rain = 0
KCL1 090759Z 33003KT M05/M09 A3028 RMK A01 T10541085  RH  079%=      5-min Rain = 0
KCL1 090800Z 34003KT M05/M08 A3028 RMK A01 T10531084  RH  079%=      5-min Rain = 0
KCL1 090801Z 33004KT M05/M09 A3028 RMK A01 T10541085  RH  079%=      5-min Rain = 0
KCL1 090802Z 32005KT M05/M08 A3028 RMK A01 T10541084  RH  080%=      5-min Rain = 0
KCL1 090803Z 33004KT M05/M08 A3028 RMK A01 T10531082  RH  080%=      5-min Rain = 0
KCL1 090804Z 33004KT M05/M08 A3028 RMK A01 T10521082  RH  080%=      5-min Rain = 0
KCL1 090805Z 32004KT M05/M08 A3028 RMK A01 T10521082  RH  080%=      5-min Rain = 0
KCL1 090806Z 33003KT M05/M08 A3028 RMK A01 T10511081  RH  080%=      5-min Rain = 0
KCL1 090807Z 33004KT M05/M08 A3028 RMK A01 T10511081  RH  079%=      5-min Rain = 0
KCL1 090808Z 33003KT M05/M08 A3028 RMK A01 T10511081  RH  079%=      5-min Rain = 0
KCL1 090809Z 32004KT M05/M08 A3028 RMK A01 T10511082  RH  079%=      5-min Rain = 0
KCL1 090810Z 32003KT M05/M08 A3029 RMK A01 T10511082  RH  079%=      5-min Rain = 0
KCL1 090811Z 33003KT M05/M08 A3029 RMK A01 T10511081  RH  079%=      5-min Rain = 0
KCL1 090812Z 32004KT M05/M08 A3029 RMK A01 T10511081  RH  079%=      5-min Rain = 0
KCL1 090813Z 33004KT M05/M08 A3029 RMK A01 T10511081  RH  079%=      5-min Rain = 0
KCL1 090814Z 32003KT M05/M08 A3029 RMK A01 T10511081  RH  079%=      5-min Rain = 0
KCL1 090815Z 33003KT M05/M08 A3029 RMK A01 T10511081  RH  079%=      5-min Rain = 0
KCL1 090816Z 33003KT M05/M08 A3029 RMK A01 T10511081  RH  079%=      5-min Rain = 0
KCL1 090817Z 33004KT M05/M08 A3029 RMK A01 T10511081  RH  079%=      5-min Rain = 0
KCL1 090818Z 33003KT M05/M08 A3029 RMK A01 T10521082  RH  079%=      5-min Rain = 0
KCL1 090819Z 33003KT M05/M08 A3029 RMK A01 T10521083  RH  079%=      5-min Rain = 0
KCL1 090820Z 33004KT M05/M08 A3029 RMK A01 T10531083  RH  079%=      5-min Rain = 0
KCL1 090821Z 33004KT M05/M08 A3029 RMK A01 T10531083  RH  080%=      5-min Rain = 0
KCL1 090822Z 33004KT M05/M08 A3029 RMK A01 T10541082  RH  080%=      5-min Rain = 0
KCL1 090823Z 33005KT M05/M08 A3029 RMK A01 T10541083  RH  081%=      5-min Rain = 0
KCL1 090824Z 33005KT M05/M08 A3029 RMK A01 T10541082  RH  081%=      5-min Rain = 0
KCL1 090825Z 33005KT M05/M08 A3029 RMK A01 T10541082  RH  081%=      5-min Rain = 0
KCL1 090826Z 33005KT M05/M08 A3029 RMK A01 T10541081  RH  081%=      5-min Rain = 0
KCL1 090827Z 32005KT M05/M08 A3029 RMK A01 T10541080  RH  082%=      5-min Rain = 0
KCL1 090828Z 33004KT M05/M08 A3029 RMK A01 T10541080  RH  082%=      5-min Rain = 0
KCL1 090829Z 33004KT M05/M08 A3029 RMK A01 T10531080  RH  081%=      5-min Rain = 0
KCL1 090830Z 32004KT M05/M08 A3029 RMK A01 T10541081  RH  081%=      5-min Rain = 0
KCL1 090831Z 33004KT M05/M08 A3029 RMK A01 T10541080  RH  081%=      5-min Rain = 0
KCL1 090832Z 32004KT M05/M08 A3029 RMK A01 T10531080  RH  081%=      5-min Rain = 0
KCL1 090833Z 33003KT M05/M08 A3029 RMK A01 T10531080  RH  081%=      5-min Rain = 0
KCL1 090834Z 33003KT M05/M08 A3029 RMK A01 T10531080  RH  081%=      5-min Rain = 0
KCL1 090835Z 33003KT M05/M08 A3029 RMK A01 T10531080  RH  081%=      5-min Rain = 0
KCL1 090836Z 33003KT M05/M08 A3029 RMK A01 T10531080  RH  081%=      5-min Rain = 0
KCL1 090837Z 33004KT M05/M08 A3029 RMK A01 T10531080  RH  081%=      5-min Rain = 0
KCL1 090838Z 33004KT M05/M08 A3029 RMK A01 T10531080  RH  081%=      5-min Rain = 0
KCL1 090839Z 33005KT M05/M08 A3029 RMK A01 T10531080  RH  081%=      5-min Rain = 0
KCL1 090840Z 32005KT M05/M08 A3029 RMK A01 T10531079  RH  082%=      5-min Rain = 0
KCL1 090841Z 33005KT M05/M08 A3029 RMK A01 T10531079  RH  082%=      5-min Rain = 0
KCL1 090842Z 32005KT M05/M08 A3029 RMK A01 T10521078  RH  082%=      5-min Rain = 0
KCL1 090843Z 33005KT M05/M08 A3029 RMK A01 T10511077  RH  082%=      5-min Rain = 0
KCL1 090844Z 33005KT M05/M08 A3029 RMK A01 T10511077  RH  082%=      5-min Rain = 0
KCL1 090845Z 33004KT M05/M08 A3029 RMK A01 T10501076  RH  082%=      5-min Rain = 0
KCL1 090846Z 33004KT M05/M08 A3029 RMK A01 T10491076  RH  082%=      5-min Rain = 0
KCL1 090847Z 33004KT M05/M08 A3029 RMK A01 T10491076  RH  081%=      5-min Rain = 0
KCL1 090848Z 33004KT M05/M08 A3029 RMK A01 T10481076  RH  081%=      5-min Rain = 0
KCL1 090849Z 32003KT M05/M08 A3029 RMK A01 T10481076  RH  081%=      5-min Rain = 0
KCL1 090850Z 32004KT M05/M08 A3029 RMK A01 T10481076  RH  081%=      5-min Rain = 0
KCL1 090851Z 32004KT M05/M08 A3029 RMK A01 T10471075  RH  081%=      5-min Rain = 0
KCL1 090852Z 32004KT M05/M07 A3029 RMK A01 T10461074  RH  081%=      5-min Rain = 0
KCL1 090853Z 31004KT M05/M07 A3029 RMK A01 T10451074  RH  080%=      5-min Rain = 0
KCL1 090854Z 32002KT M05/M07 A3029 RMK A01 T10451074  RH  080%=      5-min Rain = 0
KCL1 090855Z 31002KT M04/M07 A3029 RMK A01 T10441073  RH  080%=      5-min Rain = 0
KCL1 090856Z 31003KT M04/M07 A3029 RMK A01 T10431073  RH  080%=      5-min Rain = 0
KCL1 090857Z 32004KT M04/M07 A3029 RMK A01 T10431073  RH  079%=      5-min Rain = 0
KCL1 090858Z 32004KT M04/M07 A3029 RMK A01 T10431073  RH  079%=      5-min Rain = 0
KCL1 090859Z 32003KT M04/M07 A3029 RMK A01 T10431074  RH  079%=      5-min Rain = 0
KCL1 090900Z 32004KT M04/M07 A3029 RMK A01 T10421074  RH  079%=      5-min Rain = 0
KCL1 090901Z 32004KT M04/M07 A3029 RMK A01 T10421074  RH  078%=      5-min Rain = 0
KCL1 090902Z 32005KT M04/M07 A3029 RMK A01 T10421073  RH  078%=      5-min Rain = 0
KCL1 090903Z 32006KT M04/M07 A3029 RMK A01 T10421074  RH  078%=      5-min Rain = 0
KCL1 090904Z 32006KT M04/M07 A3029 RMK A01 T10421074  RH  079%=      5-min Rain = 0
KCL1 090905Z 32006KT M04/M07 A3029 RMK A01 T10421073  RH  079%=      5-min Rain = 0
KCL1 090906Z 32006KT M04/M07 A3029 RMK A01 T10421073  RH  079%=      5-min Rain = 0
KCL1 090907Z 32006KT M04/M07 A3029 RMK A01 T10421073  RH  079%=      5-min Rain = 0
KCL1 090908Z 33005KT M04/M07 A3029 RMK A01 T10411073  RH  079%=      5-min Rain = 0
KCL1 090909Z 33006KT M04/M07 A3029 RMK A01 T10411073  RH  078%=      5-min Rain = 0
KCL1 090910Z 32006KT M04/M07 A3029 RMK A01 T10421074  RH  078%=      5-min Rain = 0
KCL1 090911Z 33007KT M04/M07 A3029 RMK A01 T10421074  RH  078%=      5-min Rain = 0
KCL1 090912Z 32007KT M04/M07 A3029 RMK A01 T10411073  RH  078%=      5-min Rain = 0
KCL1 090913Z 32007KT M04/M07 A3029 RMK A01 T10421074  RH  078%=      5-min Rain = 0
KCL1 090914Z 32007KT M04/M07 A3029 RMK A01 T10421074  RH  078%=      5-min Rain = 0
KCL1 090915Z 33007KT M04/M07 A3029 RMK A01 T10421074  RH  078%=      5-min Rain = 0
KCL1 090916Z 32007KT M04/M08 A3029 RMK A01 T10431075  RH  078%=      5-min Rain = 0
KCL1 090917Z 32008KT M04/M08 A3029 RMK A01 T10431076  RH  078%=      5-min Rain = 0
KCL1 090918Z 32007KT M04/M08 A3029 RMK A01 T10441076  RH  078%=      5-min Rain = 0
KCL1 090919Z 32007KT M05/M08 A3029 RMK A01 T10451077  RH  078%=      5-min Rain = 0
KCL1 090920Z 33007KT M05/M08 A3029 RMK A01 T10461078  RH  078%=      5-min Rain = 0
KCL1 090921Z 32007KT M05/M08 A3029 RMK A01 T10461078  RH  079%=      5-min Rain = 0
KCL1 090922Z 32007KT M05/M08 A3029 RMK A01 T10471078  RH  079%=      5-min Rain = 0
KCL1 090923Z 32007KT M05/M08 A3029 RMK A01 T10471077  RH  079%=      5-min Rain = 0
KCL1 090924Z 32007KT M05/M08 A3029 RMK A01 T10471077  RH  080%=      5-min Rain = 0
KCL1 090925Z 33007KT M05/M08 A3029 RMK A01 T10471077  RH  080%=      5-min Rain = 0
KCL1 090926Z 33007KT M05/M08 A3029 RMK A01 T10461076  RH  080%=      5-min Rain = 0
KCL1 090927Z 32007KT M05/M08 A3029 RMK A01 T10461077  RH  079%=      5-min Rain = 0
KCL1 090928Z 33007KT M05/M08 A3029 RMK A01 T10461077  RH  079%=      5-min Rain = 0
KCL1 090929Z 33007KT M05/M08 A3029 RMK A01 T10461077  RH  079%=      5-min Rain = 0
KCL1 090930Z 33007KT M05/M08 A3029 RMK A01 T10461077  RH  079%=      5-min Rain = 0
KCL1 090931Z 33007KT M05/M08 A3029 RMK A01 T10471078  RH  079%=      5-min Rain = 0
KCL1 090932Z 33006KT M05/M08 A3029 RMK A01 T10471078  RH  079%=      5-min Rain = 0
KCL1 090933Z 33006KT M05/M08 A3029 RMK A01 T10471078  RH  079%=      5-min Rain = 0
KCL1 090934Z 33006KT M05/M08 A3029 RMK A01 T10471078  RH  079%=      5-min Rain = 0
KCL1 090935Z 33006KT M05/M08 A3029 RMK A01 T10471078  RH  079%=      5-min Rain = 0
KCL1 090936Z 33007KT M05/M08 A3029 RMK A01 T10481078  RH  079%=      5-min Rain = 0
KCL1 090937Z 33006KT M05/M08 A3029 RMK A01 T10481078  RH  079%=      5-min Rain = 0
KCL1 090938Z 33006KT M05/M08 A3029 RMK A01 T10481079  RH  079%=      5-min Rain = 0
KCL1 090939Z 33007KT M05/M08 A3029 RMK A01 T10481078  RH  079%=      5-min Rain = 0
KCL1 090940Z 33007KT M05/M08 A3029 RMK A01 T10481078  RH  079%=      5-min Rain = 0
KCL1 090941Z 34007KT M05/M08 A3029 RMK A01 T10481078  RH  080%=      5-min Rain = 0
KCL1 090942Z 34007KT M05/M08 A3029 RMK A01 T10481078  RH  080%=      5-min Rain = 0
KCL1 090943Z 34007KT M05/M08 A3029 RMK A01 T10481078  RH  080%=      5-min Rain = 0
KCL1 090944Z 34006KT M05/M08 A3029 RMK A01 T10481078  RH  079%=      5-min Rain = 0
KCL1 090945Z 34006KT M05/M08 A3029 RMK A01 T10481078  RH  080%=      5-min Rain = 0
KCL1 090946Z 34006KT M05/M08 A3029 RMK A01 T10481078  RH  079%=      5-min Rain = 0
KCL1 090947Z 33006KT M05/M08 A3029 RMK A01 T10481078  RH  079%=      5-min Rain = 0
KCL1 090948Z 33007KT M05/M08 A3029 RMK A01 T10481078  RH  079%=      5-min Rain = 0
KCL1 090949Z 33007KT M05/M08 A3029 RMK A01 T10481079  RH  079%=      5-min Rain = 0
KCL1 090950Z 34006KT M05/M08 A3029 RMK A01 T10491079  RH  079%=      5-min Rain = 0
KCL1 090951Z 34007KT M05/M08 A3029 RMK A01 T10491079  RH  079%=      5-min Rain = 0
KCL1 090952Z 33007KT M05/M08 A3029 RMK A01 T10481078  RH  080%=      5-min Rain = 0
KCL1 090953Z 33006KT M05/M08 A3029 RMK A01 T10471077  RH  080%=      5-min Rain = 0
KCL1 090954Z 34007KT M05/M08 A3029 RMK A01 T10461076  RH  080%=      5-min Rain = 0
KCL1 090955Z 33006KT M05/M08 A3029 RMK A01 T10461076  RH  079%=      5-min Rain = 0
KCL1 090956Z 33006KT M05/M08 A3029 RMK A01 T10461076  RH  079%=      5-min Rain = 0
KCL1 090957Z 33007KT M05/M08 A3029 RMK A01 T10461077  RH  079%=      5-min Rain = 0
KCL1 090958Z 33007KT M05/M08 A3029 RMK A01 T10471078  RH  079%=      5-min Rain = 0
KCL1 090959Z 33007KT M05/M08 A3029 RMK A01 T10471078  RH  079%=      5-min Rain = 0
KCL1 091000Z 33007KT M05/M08 A3029 RMK A01 T10471078  RH  079%=      5-min Rain = 0
KCL1 091001Z 33007KT M05/M08 A3029 RMK A01 T10471078  RH  079%=      5-min Rain = 0
KCL1 091002Z 33007KT M05/M08 A3029 RMK A01 T10471078  RH  079%=      5-min Rain = 0
KCL1 091003Z 33008KT M05/M08 A3029 RMK A01 T10471078  RH  079%=      5-min Rain = 0
KCL1 091004Z 33008KT M05/M08 A3029 RMK A01 T10471078  RH  079%=      5-min Rain = 0
KCL1 091005Z 33007KT M05/M08 A3029 RMK A01 T10471078  RH  079%=      5-min Rain = 0
KCL1 091006Z 33007KT M05/M08 A3029 RMK A01 T10471078  RH  079%=      5-min Rain = 0
KCL1 091007Z 33007KT M05/M08 A3029 RMK A01 T10471077  RH  079%=      5-min Rain = 0
KCL1 091008Z 33007KT M05/M08 A3029 RMK A01 T10461077  RH  079%=      5-min Rain = 0
KCL1 091009Z 33007KT M05/M08 A3029 RMK A01 T10461077  RH  079%=      5-min Rain = 0
KCL1 091010Z 33007KT M05/M08 A3029 RMK A01 T10461077  RH  079%=      5-min Rain = 0
KCL1 091011Z 33006KT M05/M08 A3029 RMK A01 T10461077  RH  079%=      5-min Rain = 0
KCL1 091012Z 33006KT M05/M08 A3029 RMK A01 T10461077  RH  079%=      5-min Rain = 0
KCL1 091013Z 34007KT M05/M08 A3029 RMK A01 T10461078  RH  079%=      5-min Rain = 0
KCL1 091014Z 33007KT M05/M08 A3029 RMK A01 T10471078  RH  079%=      5-min Rain = 0
KCL1 091015Z 34007KT M05/M08 A3029 RMK A01 T10481079  RH  079%=      5-min Rain = 0
KCL1 091016Z 34007KT M05/M08 A3029 RMK A01 T10481080  RH  079%=      5-min Rain = 0
KCL1 091017Z 34007KT M05/M08 A3029 RMK A01 T10491081  RH  079%=      5-min Rain = 0
KCL1 091018Z 34007KT M05/M08 A3029 RMK A01 T10501081  RH  079%=      5-min Rain = 0
KCL1 091019Z 34007KT M05/M08 A3029 RMK A01 T10511082  RH  079%=      5-min Rain = 0
KCL1 091020Z 34007KT M05/M08 A3029 RMK A01 T10521082  RH  079%=      5-min Rain = 0
KCL1 091021Z 33007KT M05/M08 A3029 RMK A01 T10531083  RH  079%=      5-min Rain = 0
KCL1 091022Z 34007KT M05/M08 A3029 RMK A01 T10531083  RH  080%=      5-min Rain = 0
KCL1 091023Z 33008KT M05/M08 A3029 RMK A01 T10541083  RH  080%=      5-min Rain = 0
KCL1 091024Z 33008KT M05/M08 A3029 RMK A01 T10541083  RH  080%=      5-min Rain = 0
KCL1 091025Z 33009KT M06/M08 A3029 RMK A01 T10551083  RH  080%=      5-min Rain = 0
KCL1 091026Z 33009KT M06/M08 A3029 RMK A01 T10551083  RH  081%=      5-min Rain = 0
KCL1 091027Z 33009KT M06/M08 A3029 RMK A01 T10551083  RH  081%=      5-min Rain = 0
KCL1 091028Z 33009KT M06/M08 A3029 RMK A01 T10551083  RH  081%=      5-min Rain = 0
KCL1 091029Z 34009KT M06/M08 A3029 RMK A01 T10551082  RH  081%=      5-min Rain = 0
KCL1 091030Z 34009KT M05/M08 A3029 RMK A01 T10541082  RH  081%=      5-min Rain = 0
KCL1 091031Z 33009KT M05/M08 A3029 RMK A01 T10541082  RH  081%=      5-min Rain = 0
KCL1 091032Z 34009KT M05/M08 A3029 RMK A01 T10541082  RH  081%=      5-min Rain = 0
KCL1 091033Z 33008KT M05/M08 A3029 RMK A01 T10541082  RH  081%=      5-min Rain = 0
KCL1 091034Z 34008KT M05/M08 A3029 RMK A01 T10541081  RH  081%=      5-min Rain = 0
KCL1 091035Z 34008KT M05/M08 A3029 RMK A01 T10541081  RH  081%=      5-min Rain = 0
KCL1 091036Z 34008KT M05/M08 A3029 RMK A01 T10531081  RH  081%=      5-min Rain = 0
KCL1 091037Z 34009KT M05/M08 A3029 RMK A01 T10531081  RH  081%=      5-min Rain = 0
KCL1 091038Z 34009KT M05/M08 A3029 RMK A01 T10531081  RH  081%=      5-min Rain = 0
KCL1 091039Z 34009KT M05/M08 A3029 RMK A01 T10531081  RH  081%=      5-min Rain = 0
KCL1 091040Z 34009KT M05/M08 A3029 RMK A01 T10531082  RH  081%=      5-min Rain = 0
KCL1 091041Z 34009KT M05/M08 A3029 RMK A01 T10531081  RH  081%=      5-min Rain = 0
KCL1 091042Z 34009KT M05/M08 A3029 RMK A01 T10531081  RH  080%=      5-min Rain = 0
KCL1 091043Z 34009KT M05/M08 A3029 RMK A01 T10531081  RH  080%=      5-min Rain = 0
KCL1 091044Z 34009KT M05/M08 A3029 RMK A01 T10531081  RH  080%=      5-min Rain = 0
KCL1 091045Z 34009KT M05/M08 A3029 RMK A01 T10531082  RH  080%=      5-min Rain = 0
KCL1 091046Z 34009KT M05/M08 A3029 RMK A01 T10531082  RH  080%=      5-min Rain = 0
KCL1 091047Z 34009KT M05/M08 A3029 RMK A01 T10531082  RH  080%=      5-min Rain = 0
KCL1 091048Z 34009KT M05/M08 A3029 RMK A01 T10531082  RH  080%=      5-min Rain = 0
KCL1 091049Z 34008KT M05/M08 A3029 RMK A01 T10531082  RH  080%=      5-min Rain = 0
KCL1 091050Z 34008KT M05/M08 A3029 RMK A01 T10531081  RH  080%=      5-min Rain = 0
KCL1 091051Z 34009KT M05/M08 A3029 RMK A01 T10531082  RH  080%=      5-min Rain = 0
KCL1 091052Z 34008KT M05/M08 A3029 RMK A01 T10531082  RH  080%=      5-min Rain = 0
KCL1 091053Z 34008KT M05/M08 A3029 RMK A01 T10531082  RH  080%=      5-min Rain = 0
KCL1 091054Z 34008KT M05/M08 A3029 RMK A01 T10531083  RH  080%=      5-min Rain = 0
KCL1 091055Z 34008KT M05/M08 A3029 RMK A01 T10541083  RH  080%=      5-min Rain = 0
KCL1 091056Z 34008KT M05/M08 A3029 RMK A01 T10541083  RH  080%=      5-min Rain = 0
KCL1 091057Z 34008KT M05/M08 A3029 RMK A01 T10541083  RH  080%=      5-min Rain = 0
KCL1 091058Z 34008KT M05/M08 A3029 RMK A01 T10541083  RH  080%=      5-min Rain = 0
KCL1 091059Z 34008KT M05/M08 A3029 RMK A01 T10541083  RH  080%=      5-min Rain = 0
KCL1 091100Z 34008KT M05/M08 A3029 RMK A01 T10541083  RH  080%=      5-min Rain = 0
KCL1 091101Z 34008KT M05/M08 A3029 RMK A01 T10531082  RH  080%=      5-min Rain = 0
KCL1 091102Z 34008KT M05/M08 A3029 RMK A01 T10531082  RH  080%=      5-min Rain = 0
KCL1 091103Z 34008KT M05/M08 A3029 RMK A01 T10531082  RH  080%=      5-min Rain = 0
KCL1 091104Z 33008KT M05/M08 A3029 RMK A01 T10531082  RH  080%=      5-min Rain = 0
KCL1 091105Z 33008KT M05/M08 A3029 RMK A01 T10531082  RH  080%=      5-min Rain = 0
KCL1 091106Z 33008KT M05/M08 A3029 RMK A01 T10531081  RH  080%=      5-min Rain = 0
KCL1 091107Z 33009KT M05/M08 A3029 RMK A01 T10521081  RH  080%=      5-min Rain = 0
KCL1 091108Z 33009KT M05/M08 A3029 RMK A01 T10521080  RH  081%=      5-min Rain = 0
KCL1 091109Z 33009KT M05/M08 A3029 RMK A01 T10501079  RH  081%=      5-min Rain = 0
KCL1 091110Z 33009KT M05/M08 A3029 RMK A01 T10501078  RH  081%=      5-min Rain = 0
KCL1 091111Z 33009KT M05/M08 A3029 RMK A01 T10501079  RH  080%=      5-min Rain = 0
KCL1 091112Z 33009KT M05/M08 A3029 RMK A01 T10501078  RH  080%=      5-min Rain = 0
KCL1 091113Z 33008KT M05/M08 A3029 RMK A01 T10501078  RH  080%=      5-min Rain = 0
KCL1 091114Z 33008KT M05/M08 A3029 RMK A01 T10491078  RH  080%=      5-min Rain = 0
KCL1 091115Z 33008KT M05/M08 A3029 RMK A01 T10491078  RH  080%=      5-min Rain = 0
KCL1 091116Z 33008KT M05/M08 A3029 RMK A01 T10491078  RH  080%=      5-min Rain = 0
KCL1 091117Z 33007KT M05/M08 A3029 RMK A01 T10501078  RH  080%=      5-min Rain = 0
KCL1 091118Z 33008KT M05/M08 A3029 RMK A01 T10501078  RH  080%=      5-min Rain = 0
KCL1 091119Z 33007KT M05/M08 A3029 RMK A01 T10511079  RH  081%=      5-min Rain = 0
KCL1 091120Z 34007KT M05/M08 A3029 RMK A01 T10501078  RH  081%=      5-min Rain = 0
KCL1 091121Z 34007KT M05/M08 A3029 RMK A01 T10501078  RH  081%=      5-min Rain = 0
KCL1 091122Z 34006KT M05/M08 A3029 RMK A01 T10501078  RH  081%=      5-min Rain = 0
KCL1 091123Z 34007KT M05/M08 A3029 RMK A01 T10501078  RH  081%=      5-min Rain = 0
KCL1 091124Z 34007KT M05/M08 A3029 RMK A01 T10501078  RH  081%=      5-min Rain = 0
KCL1 091125Z 34007KT M05/M08 A3029 RMK A01 T10501078  RH  080%=      5-min Rain = 0
KCL1 091126Z 34007KT M05/M08 A3029 RMK A01 T10501079  RH  080%=      5-min Rain = 0
KCL1 091127Z 34007KT M05/M08 A3029 RMK A01 T10501079  RH  080%=      5-min Rain = 0
KCL1 091128Z 34007KT M05/M08 A3029 RMK A01 T10501079  RH  080%=      5-min Rain = 0
KCL1 091129Z 34007KT M05/M08 A3029 RMK A01 T10501079  RH  080%=      5-min Rain = 0
KCL1 091130Z 33007KT M05/M08 A3029 RMK A01 T10491079  RH  080%=      5-min Rain = 0
KCL1 091131Z 33008KT M05/M08 A3029 RMK A01 T10501079  RH  080%=      5-min Rain = 0
KCL1 091132Z 33009KT M05/M08 A3029 RMK A01 T10501079  RH  080%=      5-min Rain = 0
KCL1 091133Z 33009KT M05/M08 A3029 RMK A01 T10501079  RH  080%=      5-min Rain = 0
KCL1 091134Z 33009KT M05/M08 A3029 RMK A01 T10501079  RH  080%=      5-min Rain = 0
KCL1 091135Z 33009KT M05/M08 A3029 RMK A01 T10501079  RH  080%=      5-min Rain = 0
KCL1 091136Z 32009KT M05/M08 A3029 RMK A01 T10501079  RH  080%=      5-min Rain = 0
KCL1 091137Z 33009KT M05/M08 A3029 RMK A01 T10501078  RH  080%=      5-min Rain = 0
KCL1 091138Z 33009KT M05/M08 A3029 RMK A01 T10501078  RH  080%=      5-min Rain = 0
KCL1 091139Z 32009KT M05/M08 A3029 RMK A01 T10491078  RH  080%=      5-min Rain = 0
KCL1 091140Z 33009KT M05/M08 A3029 RMK A01 T10481077  RH  080%=      5-min Rain = 0
KCL1 091141Z 33008KT M05/M08 A3029 RMK A01 T10481077  RH  080%=      5-min Rain = 0
KCL1 091142Z 33008KT M05/M08 A3029 RMK A01 T10481078  RH  080%=      5-min Rain = 0
KCL1 091143Z 33008KT M05/M08 A3029 RMK A01 T10481078  RH  079%=      5-min Rain = 0
KCL1 091144Z 33009KT M05/M08 A3029 RMK A01 T10481079  RH  079%=      5-min Rain = 0
KCL1 091145Z 33008KT M05/M08 A3029 RMK A01 T10491079  RH  079%=      5-min Rain = 0
KCL1 091146Z 33008KT M05/M08 A3029 RMK A01 T10491079  RH  079%=      5-min Rain = 0
KCL1 091147Z 33009KT M05/M08 A3029 RMK A01 T10491079  RH  080%=      5-min Rain = 0
KCL1 091148Z 32009KT M05/M08 A3029 RMK A01 T10491079  RH  080%=      5-min Rain = 0
KCL1 091149Z 33009KT M05/M08 A3029 RMK A01 T10491079  RH  080%=      5-min Rain = 0
KCL1 091150Z 33009KT M05/M08 A3029 RMK A01 T10491079  RH  080%=      5-min Rain = 0
KCL1 091151Z 33009KT M05/M08 A3029 RMK A01 T10481079  RH  079%=      5-min Rain = 0
KCL1 091152Z 33008KT M05/M08 A3029 RMK A01 T10481079  RH  079%=      5-min Rain = 0
KCL1 091153Z 33008KT M05/M08 A3029 RMK A01 T10491080  RH  079%=      5-min Rain = 0
KCL1 091154Z 33008KT M05/M08 A3029 RMK A01 T10491080  RH  079%=      5-min Rain = 0
KCL1 091155Z 34007KT M05/M08 A3029 RMK A01 T10491079  RH  079%=      5-min Rain = 0
KCL1 091156Z 34007KT M05/M08 A3029 RMK A01 T10491079  RH  079%=      5-min Rain = 0
KCL1 091157Z 34007KT M05/M08 A3029 RMK A01 T10491080  RH  079%=      5-min Rain = 0
KCL1 091158Z 33008KT M05/M08 A3029 RMK A01 T10491080  RH  079%=      5-min Rain = 0
KCL1 091159Z 33009KT M05/M08 A3029 RMK A01 T10501080  RH  079%=      5-min Rain = 0
KCL1 091200Z 33010KT M05/M08 A3029 RMK A01 T10491079  RH  079%=      5-min Rain = 0
KCL1 091201Z 34009KT M05/M08 A3029 RMK A01 T10491080  RH  079%=      5-min Rain = 0
KCL1 091202Z 34009KT M05/M08 A3029 RMK A01 T10501080  RH  079%=      5-min Rain = 0
KCL1 091203Z 34009KT M05/M08 A3029 RMK A01 T10491079  RH  079%=      5-min Rain = 0
KCL1 091204Z 34009KT M05/M08 A3029 RMK A01 T10491079  RH  079%=      5-min Rain = 0
KCL1 091205Z 34008KT M05/M08 A3029 RMK A01 T10501080  RH  079%=      5-min Rain = 0
KCL1 091206Z 34008KT M05/M08 A3029 RMK A01 T10501081  RH  079%=      5-min Rain = 0
KCL1 091207Z 34008KT M05/M08 A3029 RMK A01 T10511081  RH  079%=      5-min Rain = 0
KCL1 091208Z 33008KT M05/M08 A3029 RMK A01 T10511081  RH  080%=      5-min Rain = 0
KCL1 091209Z 33008KT M05/M08 A3029 RMK A01 T10511081  RH  080%=      5-min Rain = 0
KCL1 091210Z 34007KT M05/M08 A3029 RMK A01 T10511081  RH  080%=      5-min Rain = 0
KCL1 091211Z 34007KT M05/M08 A3029 RMK A01 T10521081  RH  080%=      5-min Rain = 0
KCL1 091212Z 33007KT M05/M08 A3029 RMK A01 T10521082  RH  080%=      5-min Rain = 0
KCL1 091213Z 34007KT M05/M08 A3029 RMK A01 T10531082  RH  080%=      5-min Rain = 0
KCL1 091214Z 34007KT M05/M08 A3029 RMK A01 T10541083  RH  080%=      5-min Rain = 0
KCL1 091215Z 34008KT M05/M08 A3029 RMK A01 T10541083  RH  080%=      5-min Rain = 0
KCL1 091216Z 34007KT M05/M08 A3029 RMK A01 T10541082  RH  081%=      5-min Rain = 0
KCL1 091217Z 34007KT M05/M08 A3029 RMK A01 T10541082  RH  081%=      5-min Rain = 0
KCL1 091218Z 34008KT M05/M08 A303 RMK A01 T10541082  RH  081%=      5-min Rain = 0
KCL1 091219Z 34008KT M05/M08 A303 RMK A01 T10541083  RH  080%=      5-min Rain = 0
KCL1 091220Z 34008KT M05/M08 A303 RMK A01 T10541083  RH  080%=      5-min Rain = 0
KCL1 091221Z 34008KT M05/M08 A303 RMK A01 T10541083  RH  080%=      5-min Rain = 0
KCL1 091222Z 33008KT M06/M08 A303 RMK A01 T10551083  RH  080%=      5-min Rain = 0
KCL1 091223Z 33008KT M06/M08 A303 RMK A01 T10551083  RH  080%=      5-min Rain = 0
KCL1 091224Z 33009KT M06/M08 A303 RMK A01 T10551083  RH  081%=      5-min Rain = 0
KCL1 091225Z 33008KT M06/M08 A303 RMK A01 T10551083  RH  081%=      5-min Rain = 0
KCL1 091226Z 33008KT M06/M08 A303 RMK A01 T10551083  RH  081%=      5-min Rain = 0
KCL1 091227Z 34008KT M06/M08 A303 RMK A01 T10551083  RH  081%=      5-min Rain = 0
KCL1 091228Z 34008KT M05/M08 A303 RMK A01 T10541082  RH  081%=      5-min Rain = 0
KCL1 091229Z 34008KT M05/M08 A303 RMK A01 T10541082  RH  080%=      5-min Rain = 0
KCL1 091230Z 34008KT M05/M08 A303 RMK A01 T10541082  RH  080%=      5-min Rain = 0
KCL1 091231Z 34007KT M05/M08 A303 RMK A01 T10541083  RH  080%=      5-min Rain = 0
KCL1 091232Z 34008KT M05/M08 A303 RMK A01 T10541083  RH  080%=      5-min Rain = 0
KCL1 091233Z 34008KT M05/M08 A303 RMK A01 T10531082  RH  080%=      5-min Rain = 0
KCL1 091234Z 34008KT M05/M08 A303 RMK A01 T10531082  RH  080%=      5-min Rain = 0
KCL1 091235Z 34008KT M05/M08 A303 RMK A01 T10531083  RH  080%=      5-min Rain = 0
KCL1 091236Z 33008KT M05/M08 A303 RMK A01 T10541083  RH  080%=      5-min Rain = 0
KCL1 091237Z 33008KT M05/M08 A303 RMK A01 T10541083  RH  080%=      5-min Rain = 0
KCL1 091238Z 33008KT M05/M08 A303 RMK A01 T10531083  RH  080%=      5-min Rain = 0
KCL1 091239Z 33008KT M05/M08 A303 RMK A01 T10531082  RH  080%=      5-min Rain = 0
KCL1 091240Z 33008KT M05/M08 A303 RMK A01 T10531083  RH  080%=      5-min Rain = 0
KCL1 091241Z 33008KT M05/M08 A3031 RMK A01 T10531083  RH  080%=      5-min Rain = 0
KCL1 091242Z 33008KT M05/M08 A3031 RMK A01 T10531083  RH  080%=      5-min Rain = 0
KCL1 091243Z 33008KT M05/M08 A3031 RMK A01 T10531083  RH  080%=      5-min Rain = 0
KCL1 091244Z 33008KT M05/M08 A3031 RMK A01 T10531083  RH  080%=      5-min Rain = 0
KCL1 091245Z 33009KT M05/M08 A3031 RMK A01 T10531083  RH  080%=      5-min Rain = 0
KCL1 091246Z 33008KT M05/M08 A3031 RMK A01 T10541083  RH  080%=      5-min Rain = 0
KCL1 091247Z 33009KT M05/M08 A3031 RMK A01 T10541084  RH  080%=      5-min Rain = 0
KCL1 091248Z 33008KT M05/M08 A3031 RMK A01 T10541084  RH  080%=      5-min Rain = 0
KCL1 091249Z 33008KT M05/M08 A3031 RMK A01 T10541084  RH  079%=      5-min Rain = 0
KCL1 091250Z 33009KT M05/M08 A3031 RMK A01 T10541084  RH  080%=      5-min Rain = 0
KCL1 091251Z 33008KT M05/M08 A3031 RMK A01 T10541084  RH  080%=      5-min Rain = 0
KCL1 091252Z 33008KT M06/M09 A3031 RMK A01 T10551085  RH  080%=      5-min Rain = 0
KCL1 091253Z 33008KT M06/M09 A3031 RMK A01 T10551085  RH  080%=      5-min Rain = 0
KCL1 091254Z 33008KT M06/M09 A3031 RMK A01 T10561085  RH  080%=      5-min Rain = 0
KCL1 091255Z 33008KT M06/M09 A3031 RMK A01 T10561085  RH  080%=      5-min Rain = 0
KCL1 091256Z 33008KT M06/M09 A3031 RMK A01 T10571085  RH  080%=      5-min Rain = 0
KCL1 091257Z 33008KT M06/M09 A3031 RMK A01 T10571086  RH  080%=      5-min Rain = 0
KCL1 091258Z 33008KT M06/M09 A3031 RMK A01 T10571086  RH  081%=      5-min Rain = 0
KCL1 091259Z 33008KT M06/M09 A3031 RMK A01 T10581086  RH  081%=      5-min Rain = 0
KCL1 091300Z 33008KT M06/M09 A3031 RMK A01 T10581085  RH  081%=      5-min Rain = 0
KCL1 091301Z 33008KT M06/M09 A3031 RMK A01 T10581085  RH  081%=      5-min Rain = 0
KCL1 091302Z 33008KT M06/M09 A3031 RMK A01 T10581085  RH  081%=      5-min Rain = 0
KCL1 091303Z 33008KT M06/M09 A3031 RMK A01 T10581085  RH  081%=      5-min Rain = 0
KCL1 091304Z 33009KT M06/M09 A3031 RMK A01 T10571085  RH  081%=      5-min Rain = 0
KCL1 091305Z 33008KT M06/M09 A3031 RMK A01 T10571085  RH  081%=      5-min Rain = 0
KCL1 091306Z 33008KT M06/M09 A3031 RMK A01 T10571085  RH  081%=      5-min Rain = 0
KCL1 091307Z 33008KT M06/M09 A3031 RMK A01 T10571085  RH  081%=      5-min Rain = 0
KCL1 091308Z 33008KT M06/M09 A3031 RMK A01 T10571085  RH  081%=      5-min Rain = 0
KCL1 091309Z 33008KT M06/M09 A3031 RMK A01 T10571085  RH  081%=      5-min Rain = 0
KCL1 091310Z 33008KT M06/M09 A3031 RMK A01 T10571085  RH  081%=      5-min Rain = 0
KCL1 091311Z 34008KT M06/M09 A3032 RMK A01 T10571086  RH  081%=      5-min Rain = 0
KCL1 091312Z 33008KT M06/M09 A3032 RMK A01 T10571086  RH  081%=      5-min Rain = 0
KCL1 091313Z 33009KT M06/M09 A3032 RMK A01 T10571086  RH  080%=      5-min Rain = 0
KCL1 091314Z 33009KT M06/M09 A3032 RMK A01 T10571086  RH  080%=      5-min Rain = 0
KCL1 091315Z 33009KT M06/M09 A3032 RMK A01 T10571085  RH  080%=      5-min Rain = 0
KCL1 091316Z 33009KT M06/M09 A3032 RMK A01 T10571085  RH  080%=      5-min Rain = 0
KCL1 091317Z 33009KT M06/M09 A3032 RMK A01 T10571085  RH  080%=      5-min Rain = 0
KCL1 091318Z 33009KT M06/M09 A3032 RMK A01 T10561085  RH  080%=      5-min Rain = 0
KCL1 091319Z 33008KT M06/M08 A3032 RMK A01 T10561084  RH  080%=      5-min Rain = 0
KCL1 091320Z 33009KT M06/M08 A3032 RMK A01 T10551084  RH  080%=      5-min Rain = 0
KCL1 091321Z 33008KT M06/M08 A3032 RMK A01 T10551084  RH  080%=      5-min Rain = 0
KCL1 091322Z 33008KT M06/M09 A3032 RMK A01 T10551085  RH  080%=      5-min Rain = 0
KCL1 091323Z 34009KT M06/M09 A3032 RMK A01 T10561085  RH  080%=      5-min Rain = 0
KCL1 091324Z 33009KT M06/M09 A3032 RMK A01 T10551085  RH  080%=      5-min Rain = 0
KCL1 091325Z 33009KT M06/M08 A3032 RMK A01 T10551084  RH  080%=      5-min Rain = 0
KCL1 091326Z 33008KT M06/M09 A3032 RMK A01 T10551085  RH  080%=      5-min Rain = 0
KCL1 091327Z 33009KT M06/M09 A3032 RMK A01 T10561085  RH  080%=      5-min Rain = 0
KCL1 091328Z 33007KT M06/M09 A3032 RMK A01 T10551085  RH  080%=      5-min Rain = 0
KCL1 091329Z 33009KT M06/M09 A3032 RMK A01 T10551085  RH  080%=      5-min Rain = 0
KCL1 091330Z 33008KT M06/M09 A3032 RMK A01 T10561085  RH  080%=      5-min Rain = 0
KCL1 091331Z 33008KT M06/M09 A3032 RMK A01 T10561085  RH  080%=      5-min Rain = 0
KCL1 091332Z 33009KT M06/M09 A3032 RMK A01 T10561085  RH  080%=      5-min Rain = 0
KCL1 091333Z 33009KT M06/M09 A3032 RMK A01 T10561085  RH  080%=      5-min Rain = 0
KCL1 091334Z 33009KT M06/M09 A3032 RMK A01 T10561085  RH  080%=      5-min Rain = 0
KCL1 091335Z 33009KT M06/M09 A3032 RMK A01 T10561085  RH  080%=      5-min Rain = 0
KCL1 091336Z 33009KT M06/M09 A3032 RMK A01 T10551085  RH  080%=      5-min Rain = 0
KCL1 091337Z 33010KT M06/M09 A3032 RMK A01 T10551085  RH  080%=      5-min Rain = 0
KCL1 091338Z 33009KT M06/M09 A3032 RMK A01 T10551085  RH  079%=      5-min Rain = 0
KCL1 091339Z 33009KT M06/M09 A3032 RMK A01 T10551085  RH  079%=      5-min Rain = 0
KCL1 091340Z 33010KT M06/M09 A3032 RMK A01 T10551085  RH  079%=      5-min Rain = 0
KCL1 091341Z 33009KT M05/M09 A3032 RMK A01 T10541085  RH  079%=      5-min Rain = 0
KCL1 091342Z 33010KT M05/M09 A3033 RMK A01 T10541085  RH  079%=      5-min Rain = 0
KCL1 091343Z 33010KT M05/M08 A3033 RMK A01 T10541084  RH  079%=      5-min Rain = 0
KCL1 091344Z 33010KT M05/M08 A3033 RMK A01 T10531084  RH  079%=      5-min Rain = 0
KCL1 091345Z 33009KT M05/M08 A3033 RMK A01 T10531084  RH  079%=      5-min Rain = 0
KCL1 091346Z 33010KT M05/M08 A3033 RMK A01 T10531084  RH  079%=      5-min Rain = 0
KCL1 091347Z 33010KT M05/M08 A3033 RMK A01 T10521084  RH  078%=      5-min Rain = 0
KCL1 091348Z 33009KT M05/M08 A3033 RMK A01 T10521084  RH  078%=      5-min Rain = 0
KCL1 091349Z 33009KT M05/M08 A3033 RMK A01 T10521084  RH  078%=      5-min Rain = 0
KCL1 091350Z 32008KT M05/M08 A3033 RMK A01 T10521084  RH  078%=      5-min Rain = 0
KCL1 091351Z 33009KT M05/M08 A3033 RMK A01 T10511084  RH  078%=      5-min Rain = 0
KCL1 091352Z 33009KT M05/M08 A3033 RMK A01 T10511083  RH  078%=      5-min Rain = 0
KCL1 091353Z 33008KT M05/M08 A3033 RMK A01 T10511083  RH  078%=      5-min Rain = 0
KCL1 091354Z 33008KT M05/M08 A3033 RMK A01 T10511084  RH  078%=      5-min Rain = 0
KCL1 091355Z 33009KT M05/M08 A3033 RMK A01 T10511083  RH  078%=      5-min Rain = 0
KCL1 091356Z 33009KT M05/M08 A3033 RMK A01 T10501083  RH  078%=      5-min Rain = 0
KCL1 091357Z 33009KT M05/M08 A3033 RMK A01 T10501082  RH  078%=      5-min Rain = 0
KCL1 091358Z 33009KT M05/M08 A3033 RMK A01 T10501083  RH  078%=      5-min Rain = 0
KCL1 091359Z 33010KT M05/M08 A3033 RMK A01 T10491083  RH  078%=      5-min Rain = 0
KCL1 091400Z 33009KT M05/M08 A3033 RMK A01 T10491082  RH  078%=      5-min Rain = 0
KCL1 091401Z 33010KT M05/M08 A3033 RMK A01 T10491082  RH  077%=      5-min Rain = 0
KCL1 091402Z 33009KT M05/M08 A3033 RMK A01 T10491082  RH  077%=      5-min Rain = 0
KCL1 091403Z 33009KT M05/M08 A3033 RMK A01 T10491082  RH  078%=      5-min Rain = 0
KCL1 091404Z 33009KT M05/M08 A3033 RMK A01 T10491082  RH  078%=      5-min Rain = 0
KCL1 091405Z 33010KT M05/M08 A3033 RMK A01 T10491083  RH  077%=      5-min Rain = 0
KCL1 091406Z 33009KT M05/M08 A3033 RMK A01 T10491083  RH  077%=      5-min Rain = 0
KCL1 091407Z 33009KT M05/M08 A3033 RMK A01 T10491083  RH  077%=      5-min Rain = 0
KCL1 091408Z 33009KT M05/M08 A3033 RMK A01 T10491083  RH  077%=      5-min Rain = 0
KCL1 091409Z 33009KT M05/M08 A3033 RMK A01 T10491083  RH  077%=      5-min Rain = 0
KCL1 091410Z 33009KT M05/M08 A3033 RMK A01 T10491083  RH  077%=      5-min Rain = 0
KCL1 091411Z 33009KT M05/M08 A3033 RMK A01 T10491083  RH  077%=      5-min Rain = 0
KCL1 091412Z 33009KT M05/M08 A3033 RMK A01 T10491083  RH  077%=      5-min Rain = 0
KCL1 091413Z 33010KT M05/M08 A3033 RMK A01 T10491083  RH  077%=      5-min Rain = 0
KCL1 091414Z 33009KT M05/M08 A3033 RMK A01 T10491083  RH  077%=      5-min Rain = 0
KCL1 091415Z 33010KT M05/M08 A3033 RMK A01 T10491082  RH  077%=      5-min Rain = 0
KCL1 091416Z 33009KT M05/M08 A3033 RMK A01 T10481082  RH  077%=      5-min Rain = 0
KCL1 091417Z 33009KT M05/M08 A3033 RMK A01 T10491082  RH  077%=      5-min Rain = 0
KCL1 091418Z 34008KT M05/M08 A3033 RMK A01 T10481081  RH  078%=      5-min Rain = 0
KCL1 091419Z 34008KT M05/M08 A3033 RMK A01 T10481081  RH  077%=      5-min Rain = 0
KCL1 091420Z 33009KT M05/M08 A3033 RMK A01 T10471081  RH  077%=      5-min Rain = 0
KCL1 091421Z 34009KT M05/M08 A3033 RMK A01 T10461080  RH  077%=      5-min Rain = 0
KCL1 091422Z 34009KT M05/M08 A3033 RMK A01 T10461080  RH  077%=      5-min Rain = 0
KCL1 091423Z 34009KT M05/M08 A3033 RMK A01 T10461080  RH  077%=      5-min Rain = 0
KCL1 091424Z 33009KT M05/M08 A3033 RMK A01 T10461080  RH  077%=      5-min Rain = 0
KCL1 091425Z 34009KT M05/M08 A3033 RMK A01 T10461080  RH  077%=      5-min Rain = 0
KCL1 091426Z 33009KT M05/M08 A3033 RMK A01 T10451080  RH  077%=      5-min Rain = 0
KCL1 091427Z 33009KT M05/M08 A3033 RMK A01 T10451079  RH  077%=      5-min Rain = 0
KCL1 091428Z 34008KT M05/M08 A3033 RMK A01 T10451079  RH  077%=      5-min Rain = 0
KCL1 091429Z 33008KT M04/M08 A3033 RMK A01 T10441079  RH  077%=      5-min Rain = 0
KCL1 091430Z 33009KT M04/M08 A3033 RMK A01 T10441079  RH  077%=      5-min Rain = 0
KCL1 091431Z 33008KT M04/M08 A3034 RMK A01 T10441078  RH  077%=      5-min Rain = 0
KCL1 091432Z 34009KT M04/M08 A3034 RMK A01 T10441078  RH  077%=      5-min Rain = 0
KCL1 091433Z 33009KT M04/M08 A3034 RMK A01 T10431077  RH  077%=      5-min Rain = 0
KCL1 091434Z 33009KT M04/M08 A3034 RMK A01 T10431077  RH  077%=      5-min Rain = 0
KCL1 091435Z 33009KT M04/M08 A3034 RMK A01 T10421077  RH  077%=      5-min Rain = 0
KCL1 091436Z 34008KT M04/M08 A3034 RMK A01 T10421077  RH  077%=      5-min Rain = 0
KCL1 091437Z 34008KT M04/M08 A3034 RMK A01 T10421076  RH  077%=      5-min Rain = 0
KCL1 091438Z 33009KT M04/M08 A3034 RMK A01 T10411076  RH  077%=      5-min Rain = 0
KCL1 091439Z 33008KT M04/M08 A3034 RMK A01 T10401075  RH  077%=      5-min Rain = 0
KCL1 091440Z 33009KT M04/M07 A3034 RMK A01 T10401074  RH  077%=      5-min Rain = 0
KCL1 091441Z 33008KT M04/M07 A3034 RMK A01 T10391074  RH  077%=      5-min Rain = 0
KCL1 091442Z 33008KT M04/M07 A3034 RMK A01 T10381073  RH  077%=      5-min Rain = 0
KCL1 091443Z 33008KT M04/M07 A3034 RMK A01 T10381073  RH  077%=      5-min Rain = 0
KCL1 091444Z 33008KT M04/M07 A3034 RMK A01 T10371072  RH  077%=      5-min Rain = 0
KCL1 091445Z 33007KT M04/M07 A3034 RMK A01 T10361071  RH  077%=      5-min Rain = 0
KCL1 091446Z 33007KT M04/M07 A3034 RMK A01 T10351071  RH  076%=      5-min Rain = 0
KCL1 091447Z 34007KT M03/M07 A3034 RMK A01 T10341070  RH  076%=      5-min Rain = 0
KCL1 091448Z 33007KT M03/M07 A3034 RMK A01 T10341069  RH  076%=      5-min Rain = 0
KCL1 091449Z 34008KT M03/M07 A3034 RMK A01 T10331068  RH  076%=      5-min Rain = 0
KCL1 091450Z 34007KT M03/M07 A3034 RMK A01 T10321068  RH  076%=      5-min Rain = 0
KCL1 091451Z 34007KT M03/M07 A3034 RMK A01 T10311067  RH  076%=      5-min Rain = 0
KCL1 091452Z 34007KT M03/M07 A3034 RMK A01 T10301067  RH  076%=      5-min Rain = 0
KCL1 091453Z 33007KT M03/M07 A3034 RMK A01 T10281066  RH  075%=      5-min Rain = 0
KCL1 091454Z 34007KT M03/M07 A3034 RMK A01 T10271065  RH  075%=      5-min Rain = 0
KCL1 091455Z 34007KT M03/M07 A3034 RMK A01 T10271065  RH  075%=      5-min Rain = 0
KCL1 091456Z 34006KT M03/M07 A3034 RMK A01 T10261065  RH  075%=      5-min Rain = 0
KCL1 091457Z 34006KT M03/M06 A3034 RMK A01 T10251064  RH  074%=      5-min Rain = 0
KCL1 091458Z 35005KT M02/M06 A3034 RMK A01 T10231063  RH  074%=      5-min Rain = 0
KCL1 091459Z 34005KT M02/M06 A3034 RMK A01 T10231063  RH  074%=      5-min Rain = 0
KCL1 091500Z 34007KT M02/M06 A3034 RMK A01 T10221063  RH  074%=      5-min Rain = 0
KCL1 091501Z 35007KT M02/M06 A3034 RMK A01 T10211063  RH  073%=      5-min Rain = 0
KCL1 091502Z 35007KT M02/M06 A3034 RMK A01 T10211063  RH  073%=      5-min Rain = 0
KCL1 091503Z 34006KT M02/M06 A3034 RMK A01 T10201062  RH  073%=      5-min Rain = 0
KCL1 091504Z 34006KT M02/M06 A3034 RMK A01 T10201062  RH  073%=      5-min Rain = 0
KCL1 091505Z 34007KT M02/M06 A3034 RMK A01 T10181061  RH  073%=      5-min Rain = 0
KCL1 091506Z 35006KT M02/M06 A3034 RMK A01 T10181062  RH  072%=      5-min Rain = 0
KCL1 091507Z 34007KT M02/M06 A3034 RMK A01 T10171062  RH  072%=      5-min Rain = 0
KCL1 091508Z 34009KT M02/M06 A3034 RMK A01 T10161061  RH  071%=      5-min Rain = 0
KCL1 091509Z 34008KT M02/M06 A3034 RMK A01 T10161062  RH  071%=      5-min Rain = 0
KCL1 091510Z 34007KT M02/M06 A3034 RMK A01 T10161062  RH  071%=      5-min Rain = 0
KCL1 091511Z 34007KT M02/M06 A3035 RMK A01 T10151060  RH  071%=      5-min Rain = 0
KCL1 091512Z 34007KT M01/M06 A3035 RMK A01 T10141060  RH  071%=      5-min Rain = 0
KCL1 091513Z 34007KT M01/M06 A3035 RMK A01 T10131060  RH  071%=      5-min Rain = 0
KCL1 091514Z 34007KT M01/M06 A3035 RMK A01 T10121060  RH  070%=      5-min Rain = 0
KCL1 091515Z 34006KT M01/M06 A3035 RMK A01 T10121060  RH  070%=      5-min Rain = 0
KCL1 091516Z 34007KT M01/M06 A3035 RMK A01 T10101058  RH  070%=      5-min Rain = 0
KCL1 091517Z 34007KT M01/M06 A3035 RMK A01 T10091059  RH  069%=      5-min Rain = 0
KCL1 091518Z 33008KT M01/M06 A3035 RMK A01 T10081060  RH  068%=      5-min Rain = 0
KCL1 091519Z 33007KT M01/M06 A3035 RMK A01 T10071061  RH  067%=      5-min Rain = 0
KCL1 091520Z 33007KT M01/M06 A3035 RMK A01 T10071062  RH  067%=      5-min Rain = 0
KCL1 091521Z 33008KT M01/M06 A3035 RMK A01 T10061061  RH  066%=      5-min Rain = 0
KCL1 091522Z 34008KT M01/M06 A3035 RMK A01 T10061062  RH  066%=      5-min Rain = 0
KCL1 091523Z 34008KT M01/M06 A3035 RMK A01 T10051062  RH  065%=      5-min Rain = 0
KCL1 091524Z 33008KT M00/M06 A3035 RMK A01 T10041062  RH  065%=      5-min Rain = 0
KCL1 091525Z 34006KT M00/M06 A3035 RMK A01 T10031060  RH  065%=      5-min Rain = 0
KCL1 091526Z 34006KT M00/M06 A3035 RMK A01 T10021061  RH  064%=      5-min Rain = 0
KCL1 091527Z 34008KT M00/M06 A3035 RMK A01 T10011061  RH  064%=      5-min Rain = 0
KCL1 091528Z 34008KT 00/06 A3035 RMK A01 T00-00-63  RH  063%=      5-min Rain = 0
KCL1 091529Z 35007KT 00/06 A3035 RMK A01 T00-00-64  RH  062%=      5-min Rain = 0
KCL1 091530Z 34005KT 00/06 A3035 RMK A01 T00000-62  RH  063%=      5-min Rain = 0
KCL1 091531Z 34007KT 00/M06 A3035 RMK A01 T00011062  RH  063%=      5-min Rain = 0
KCL1 091532Z 34005KT 00/M06 A3035 RMK A01 T00011064  RH  062%=      5-min Rain = 0
KCL1 091533Z 35005KT 00/M06 A3035 RMK A01 T00031062  RH  062%=      5-min Rain = 0
KCL1 091534Z 35005KT 00/M06 A3035 RMK A01 T00031061  RH  062%=      5-min Rain = 0
KCL1 091535Z 34006KT 01/M06 A3035 RMK A01 T00051058  RH  063%=      5-min Rain = 0
KCL1 091536Z 34007KT 01/M06 A3035 RMK A01 T00061061  RH  061%=      5-min Rain = 0
KCL1 091537Z 34006KT 01/M06 A3035 RMK A01 T00061063  RH  060%=      5-min Rain = 0
KCL1 091538Z 34007KT 01/M06 A3035 RMK A01 T00061062  RH  060%=      5-min Rain = 0
KCL1 091539Z 34006KT 01/M06 A3036 RMK A01 T00071062  RH  060%=      5-min Rain = 0
KCL1 091540Z 34006KT 01/M06 A3036 RMK A01 T00061062  RH  060%=      5-min Rain = 0
KCL1 091541Z 33005KT 01/M06 A3036 RMK A01 T00071061  RH  061%=      5-min Rain = 0
KCL1 091542Z 33007KT 01/M06 A3036 RMK A01 T00081058  RH  061%=      5-min Rain = 0
KCL1 091543Z 34006KT 01/M06 A3036 RMK A01 T00091058  RH  061%=      5-min Rain = 0
KCL1 091544Z 34006KT 01/M06 A3036 RMK A01 T00101057  RH  061%=      5-min Rain = 0
KCL1 091545Z 33005KT 01/M06 A3036 RMK A01 T00101056  RH  061%=      5-min Rain = 0
KCL1 091546Z 33006KT 01/M05 A3036 RMK A01 T00121054  RH  061%=      5-min Rain = 0
KCL1 091547Z 33007KT 01/M06 A3036 RMK A01 T00131056  RH  060%=      5-min Rain = 0
KCL1 091548Z 33006KT 01/M06 A3036 RMK A01 T00121056  RH  060%=      5-min Rain = 0
KCL1 091549Z 34006KT 01/M06 A3036 RMK A01 T00131055  RH  060%=      5-min Rain = 0
KCL1 091550Z 34006KT 01/M06 A3036 RMK A01 T00131056  RH  060%=      5-min Rain = 0
KCL1 091551Z 33006KT 01/M06 A3036 RMK A01 T00141055  RH  060%=      5-min Rain = 0
KCL1 091552Z 32005KT 01/M06 A3036 RMK A01 T00141055  RH  060%=      5-min Rain = 0
KCL1 091553Z 33006KT 02/M06 A3036 RMK A01 T00151055  RH  060%=      5-min Rain = 0
KCL1 091554Z 33005KT 02/M05 A3036 RMK A01 T00161054  RH  060%=      5-min Rain = 0
KCL1 091555Z 34006KT 02/M05 A3036 RMK A01 T00181053  RH  059%=      5-min Rain = 0
KCL1 091556Z 33006KT 02/M05 A3036 RMK A01 T00191054  RH  059%=      5-min Rain = 0
KCL1 091557Z 33006KT 02/M06 A3036 RMK A01 T00191056  RH  058%=      5-min Rain = 0
KCL1 091558Z 33006KT 02/M06 A3036 RMK A01 T00191057  RH  057%=      5-min Rain = 0
KCL1 091559Z 32006KT 02/M06 A3036 RMK A01 T00191057  RH  057%=      5-min Rain = 0
KCL1 091600Z 32007KT 02/M06 A3036 RMK A01 T00191056  RH  057%=      5-min Rain = 0
KCL1 091601Z 32006KT 02/M06 A3036 RMK A01 T00201057  RH  057%=      5-min Rain = 0
KCL1 091602Z 33005KT 02/M06 A3036 RMK A01 T00201057  RH  056%=      5-min Rain = 0
KCL1 091603Z 34007KT 02/M06 A3036 RMK A01 T00211056  RH  057%=      5-min Rain = 0
KCL1 091604Z 33005KT 02/M06 A3036 RMK A01 T00221056  RH  057%=      5-min Rain = 0
KCL1 091605Z 32005KT 02/M06 A3036 RMK A01 T00221056  RH  056%=      5-min Rain = 0
KCL1 091606Z 32006KT 02/M06 A3036 RMK A01 T00231055  RH  056%=      5-min Rain = 0
KCL1 091607Z 32005KT 02/M06 A3036 RMK A01 T00241055  RH  056%=      5-min Rain = 0
KCL1 091608Z 32006KT 02/M06 A3036 RMK A01 T00241055  RH  056%=      5-min Rain = 0
KCL1 091609Z 32007KT 03/M06 A3036 RMK A01 T00251056  RH  055%=      5-min Rain = 0
KCL1 091610Z 32006KT 03/M06 A3037 RMK A01 T00251056  RH  055%=      5-min Rain = 0
KCL1 091611Z 31006KT 03/M06 A3037 RMK A01 T00261057  RH  054%=      5-min Rain = 0
KCL1 091612Z 31006KT 03/M06 A3037 RMK A01 T00271055  RH  055%=      5-min Rain = 0
KCL1 091613Z 32007KT 03/M06 A3037 RMK A01 T00281056  RH  054%=      5-min Rain = 0
KCL1 091614Z 32006KT 03/M06 A3037 RMK A01 T00291055  RH  054%=      5-min Rain = 0
KCL1 091615Z 32006KT 03/M05 A3037 RMK A01 T00301054  RH  054%=      5-min Rain = 0
KCL1 091616Z 31007KT 03/M05 A3037 RMK A01 T00311054  RH  054%=      5-min Rain = 0
KCL1 091617Z 33007KT 03/M06 A3037 RMK A01 T00311055  RH  053%=      5-min Rain = 0
KCL1 091618Z 33005KT 03/M06 A3037 RMK A01 T00311056  RH  053%=      5-min Rain = 0
KCL1 091619Z 32007KT 03/M05 A3037 RMK A01 T00321054  RH  053%=      5-min Rain = 0
KCL1 091620Z 31008KT 03/M06 A3037 RMK A01 T00321055  RH  053%=      5-min Rain = 0
KCL1 091621Z 33007KT 03/M06 A3037 RMK A01 T00321055  RH  053%=      5-min Rain = 0
KCL1 091622Z 34005KT 03/M06 A3037 RMK A01 T00331055  RH  053%=      5-min Rain = 0
KCL1 091623Z 33005KT 03/M05 A3037 RMK A01 T00341053  RH  053%=      5-min Rain = 0
KCL1 091624Z 33008KT 04/M05 A3037 RMK A01 T00351054  RH  052%=      5-min Rain = 0
KCL1 091625Z 34007KT 04/M06 A3037 RMK A01 T00351055  RH  052%=      5-min Rain = 0
KCL1 091626Z 34007KT 04/M06 A3037 RMK A01 T00351056  RH  052%=      5-min Rain = 0
KCL1 091627Z 33006KT 03/M06 A3037 RMK A01 T00341055  RH  052%=      5-min Rain = 0
KCL1 091628Z 34006KT 03/M06 A3037 RMK A01 T00341055  RH  052%=      5-min Rain = 0
KCL1 091629Z 34008KT 04/M05 A3037 RMK A01 T00361054  RH  052%=      5-min Rain = 0
KCL1 091630Z 33007KT 04/M06 A3037 RMK A01 T00351056  RH  051%=      5-min Rain = 0
KCL1 091631Z 34006KT 04/M06 A3037 RMK A01 T00351056  RH  052%=      5-min Rain = 0
KCL1 091632Z 33007KT 04/M05 A3037 RMK A01 T00351054  RH  052%=      5-min Rain = 0
KCL1 091633Z 33005KT 04/M05 A3037 RMK A01 T00361054  RH  052%=      5-min Rain = 0
KCL1 091634Z 33005KT 04/M05 A3037 RMK A01 T00371053  RH  052%=      5-min Rain = 0
KCL1 091635Z 33007KT 04/M05 A3037 RMK A01 T00381053  RH  052%=      5-min Rain = 0
KCL1 091636Z 34007KT 04/M05 A3037 RMK A01 T00381054  RH  051%=      5-min Rain = 0
KCL1 091637Z 34007KT 04/M05 A3037 RMK A01 T00381054  RH  051%=      5-min Rain = 0
KCL1 091638Z 32008KT 04/M06 A3037 RMK A01 T00371055  RH  051%=      5-min Rain = 0
KCL1 091639Z 35007KT 04/M06 A3037 RMK A01 T00361055  RH  051%=      5-min Rain = 0
KCL1 091640Z 34006KT 04/M05 A3037 RMK A01 T00371054  RH  052%=      5-min Rain = 0
KCL1 091641Z 33005KT 04/M05 A3037 RMK A01 T00381053  RH  052%=      5-min Rain = 0
KCL1 091642Z 33006KT 04/M05 A3037 RMK A01 T00391052  RH  051%=      5-min Rain = 0
KCL1 091643Z 34007KT 04/M05 A3037 RMK A01 T00401053  RH  051%=      5-min Rain = 0
KCL1 091644Z 34006KT 04/M05 A3037 RMK A01 T00411051  RH  051%=      5-min Rain = 0
KCL1 091645Z 34006KT 04/M05 A3037 RMK A01 T00421052  RH  051%=      5-min Rain = 0
KCL1 091646Z 35009KT 04/M05 A3037 RMK A01 T00431053  RH  050%=      5-min Rain = 0
KCL1 091647Z 34007KT 04/M05 A3037 RMK A01 T00421053  RH  050%=      5-min Rain = 0
KCL1 091648Z 35004KT 04/M05 A3037 RMK A01 T00421053  RH  050%=      5-min Rain = 0
KCL1 091649Z 34005KT 04/M05 A3037 RMK A01 T00431053  RH  050%=      5-min Rain = 0
KCL1 091650Z 33007KT 04/M05 A3037 RMK A01 T00431054  RH  049%=      5-min Rain = 0
KCL1 091651Z 33009KT 04/M05 A3037 RMK A01 T00431054  RH  049%=      5-min Rain = 0
KCL1 091652Z 34006KT 04/M05 A3037 RMK A01 T00431054  RH  049%=      5-min Rain = 0
KCL1 091653Z 34007KT 04/M05 A3037 RMK A01 T00441052  RH  050%=      5-min Rain = 0
KCL1 091654Z 36007KT 05/M05 A3037 RMK A01 T00451052  RH  050%=      5-min Rain = 0
KCL1 091655Z 36006KT 05/M05 A3037 RMK A01 T00451051  RH  050%=      5-min Rain = 0
KCL1 091656Z 35007KT 05/M05 A3037 RMK A01 T00461051  RH  050%=      5-min Rain = 0
KCL1 091657Z 35007KT 05/M05 A3036 RMK A01 T00471051  RH  049%=      5-min Rain = 0
KCL1 091658Z 34007KT 05/M05 A3036 RMK A01 T00471053  RH  048%=      5-min Rain = 0
KCL1 091659Z 33007KT 05/M05 A3036 RMK A01 T00461052  RH  049%=      5-min Rain = 0
KCL1 091700Z 36007KT 05/M05 A3036 RMK A01 T00471051  RH  049%=      5-min Rain = 0
KCL1 091701Z 00007KT 05/M05 A3036 RMK A01 T00471052  RH  049%=      5-min Rain = 0
KCL1 091702Z 00008KT 05/M05 A3036 RMK A01 T00481052  RH  049%=      5-min Rain = 0
KCL1 091703Z 35008KT 05/M05 A3037 RMK A01 T00471052  RH  049%=      5-min Rain = 0
KCL1 091704Z 36007KT 05/M05 A3036 RMK A01 T00471051  RH  049%=      5-min Rain = 0
KCL1 091705Z 00008KT 05/M05 A3037 RMK A01 T00491051  RH  049%=      5-min Rain = 0
KCL1 091706Z 35007KT 05/M05 A3037 RMK A01 T00491051  RH  048%=      5-min Rain = 0
KCL1 091707Z 35007KT 05/M05 A3036 RMK A01 T00501051  RH  048%=      5-min Rain = 0
KCL1 091708Z 36009KT 05/M05 A3036 RMK A01 T00491052  RH  048%=      5-min Rain = 0
KCL1 091709Z 35006KT 05/M05 A3036 RMK A01 T00491052  RH  048%=      5-min Rain = 0
KCL1 091710Z 36006KT 05/M05 A3036 RMK A01 T00501051  RH  048%=      5-min Rain = 0
KCL1 091711Z 36008KT 05/M05 A3036 RMK A01 T00501052  RH  048%=      5-min Rain = 0
KCL1 091712Z 00008KT 05/M05 A3037 RMK A01 T00501052  RH  047%=      5-min Rain = 0
KCL1 091713Z 35007KT 05/M05 A3037 RMK A01 T00511053  RH  047%=      5-min Rain = 0
KCL1 091714Z 36006KT 05/M05 A3036 RMK A01 T00501053  RH  047%=      5-min Rain = 0
KCL1 091715Z 36006KT 05/M05 A3036 RMK A01 T00511052  RH  047%=      5-min Rain = 0
KCL1 091716Z 34009KT 05/M05 A3036 RMK A01 T00511051  RH  048%=      5-min Rain = 0
KCL1 091717Z 34009KT 05/M05 A3036 RMK A01 T00521052  RH  047%=      5-min Rain = 0
KCL1 091718Z 34008KT 05/M05 A3036 RMK A01 T00521052  RH  047%=      5-min Rain = 0
KCL1 091719Z 34008KT 05/M05 A3036 RMK A01 T00521052  RH  047%=      5-min Rain = 0
KCL1 091720Z 34006KT 05/M05 A3036 RMK A01 T00521053  RH  047%=      5-min Rain = 0
KCL1 091721Z 35005KT 05/M05 A3036 RMK A01 T00521053  RH  047%=      5-min Rain = 0
KCL1 091722Z 36010KT 05/M05 A3036 RMK A01 T00521051  RH  047%=      5-min Rain = 0
KCL1 091723Z 00008KT 05/M05 A3036 RMK A01 T00531052  RH  047%=      5-min Rain = 0
KCL1 091724Z 35007KT 05/M05 A3036 RMK A01 T00521052  RH  047%=      5-min Rain = 0
KCL1 091725Z 36008KT 05/M05 A3036 RMK A01 T00531052  RH  047%=      5-min Rain = 0
KCL1 091726Z 00006KT 05/M05 A3036 RMK A01 T00531053  RH  046%=      5-min Rain = 0
KCL1 091727Z 00006KT 05/M05 A3036 RMK A01 T00541050  RH  047%=      5-min Rain = 0
KCL1 091728Z 01008KT 06/M05 A3036 RMK A01 T00571049  RH  046%=      5-min Rain = 0
KCL1 091729Z 01009KT 06/M05 A3036 RMK A01 T00571053  RH  045%=      5-min Rain = 0
KCL1 091730Z 36007KT 06/M06 A3036 RMK A01 T00551056  RH  045%=      5-min Rain = 0
KCL1 091731Z 36006KT 05/M06 A3036 RMK A01 T00541056  RH  045%=      5-min Rain = 0
KCL1 091732Z 01007KT 05/M05 A3036 RMK A01 T00531054  RH  046%=      5-min Rain = 0
KCL1 091733Z 02009KT 05/M05 A3036 RMK A01 T00541053  RH  046%=      5-min Rain = 0
KCL1 091734Z 03007KT 05/M05 A3036 RMK A01 T00541054  RH  046%=      5-min Rain = 0
KCL1 091735Z 01007KT 05/M05 A3036 RMK A01 T00541053  RH  046%=      5-min Rain = 0
KCL1 091736Z 01006KT 05/M06 A3036 RMK A01 T00541055  RH  045%=      5-min Rain = 0
KCL1 091737Z 35008KT 05/M06 A3036 RMK A01 T00531055  RH  046%=      5-min Rain = 0
KCL1 091738Z 34007KT 05/M05 A3036 RMK A01 T00541054  RH  046%=      5-min Rain = 0
KCL1 091739Z 33007KT 05/M05 A3036 RMK A01 T00541054  RH  046%=      5-min Rain = 0
KCL1 091740Z 33007KT 06/M05 A3036 RMK A01 T00551053  RH  046%=      5-min Rain = 0
KCL1 091741Z 35005KT 06/M05 A3036 RMK A01 T00561052  RH  046%=      5-min Rain = 0
KCL1 091742Z 34008KT 06/M05 A3036 RMK A01 T00591049  RH  046%=      5-min Rain = 0
KCL1 091743Z 33007KT 06/M05 A3036 RMK A01 T00601052  RH  045%=      5-min Rain = 0
KCL1 091744Z 35006KT 06/M05 A3036 RMK A01 T00591052  RH  045%=      5-min Rain = 0
KCL1 091745Z 36007KT 06/M05 A3036 RMK A01 T00601052  RH  044%=      5-min Rain = 0
KCL1 091746Z 35007KT 06/M05 A3036 RMK A01 T00601054  RH  044%=      5-min Rain = 0
KCL1 091747Z 36005KT 06/M06 A3036 RMK A01 T00591057  RH  043%=      5-min Rain = 0
KCL1 091748Z 36008KT 06/M06 A3036 RMK A01 T00581057  RH  044%=      5-min Rain = 0
KCL1 091749Z 34006KT 06/M06 A3036 RMK A01 T00581055  RH  044%=      5-min Rain = 0
KCL1 091750Z 35006KT 06/M05 A3036 RMK A01 T00591054  RH  044%=      5-min Rain = 0
KCL1 091751Z 34006KT 06/M06 A3036 RMK A01 T00601055  RH  044%=      5-min Rain = 0
KCL1 091752Z 01008KT 06/M05 A3036 RMK A01 T00591054  RH  044%=      5-min Rain = 0
KCL1 091753Z 36005KT 06/M06 A3036 RMK A01 T00581056  RH  044%=      5-min Rain = 0
KCL1 091754Z 01004KT 06/M06 A3036 RMK A01 T00581055  RH  044%=      5-min Rain = 0
KCL1 091755Z 03004KT 06/M05 A3035 RMK A01 T00591053  RH  044%=      5-min Rain = 0
KCL1 091756Z 05004KT 06/M05 A3035 RMK A01 T00601053  RH  044%=      5-min Rain = 0
KCL1 091757Z 01003KT 06/M05 A3035 RMK A01 T00601052  RH  044%=      5-min Rain = 0
KCL1 091758Z 35007KT 06/M05 A3035 RMK A01 T00621051  RH  044%=      5-min Rain = 0
KCL1 091759Z 35007KT 06/M05 A3035 RMK A01 T00621053  RH  043%=      5-min Rain = 0
KCL1 091800Z 35008KT 06/M05 A3035 RMK A01 T00621051  RH  044%=      5-min Rain = 0
KCL1 091801Z 36009KT 06/M05 A3035 RMK A01 T00631052  RH  044%=      5-min Rain = 0
KCL1 091802Z 35007KT 06/M05 A3035 RMK A01 T00631053  RH  043%=      5-min Rain = 0
KCL1 091803Z 01005KT 06/M05 A3035 RMK A01 T00631054  RH  043%=      5-min Rain = 0
KCL1 091804Z 01003KT 06/M06 A3035 RMK A01 T00631055  RH  043%=      5-min Rain = 0
KCL1 091805Z 36005KT 06/M06 A3035 RMK A01 T00631056  RH  042%=      5-min Rain = 0
KCL1 091806Z 00007KT 06/M05 A3035 RMK A01 T00641052  RH  043%=      5-min Rain = 0
KCL1 091807Z 35005KT 07/M05 A3035 RMK A01 T00651051  RH  043%=      5-min Rain = 0
KCL1 091808Z 01007KT 07/M05 A3035 RMK A01 T00651052  RH  043%=      5-min Rain = 0
KCL1 091809Z 35006KT 07/M05 A3035 RMK A01 T00651053  RH  043%=      5-min Rain = 0
KCL1 091810Z 35007KT 07/M05 A3034 RMK A01 T00651053  RH  042%=      5-min Rain = 0
KCL1 091811Z 35006KT 07/M06 A3034 RMK A01 T00651055  RH  042%=      5-min Rain = 0
KCL1 091812Z 35006KT 06/M06 A3034 RMK A01 T00641056  RH  042%=      5-min Rain = 0
KCL1 091813Z 00004KT 06/M06 A3034 RMK A01 T00621057  RH  042%=      5-min Rain = 0
KCL1 091814Z 36004KT 06/M06 A3034 RMK A01 T00611057  RH  042%=      5-min Rain = 0
KCL1 091815Z 03005KT 06/M05 A3034 RMK A01 T00621054  RH  043%=      5-min Rain = 0
KCL1 091816Z 02006KT 07/M05 A3034 RMK A01 T00661052  RH  043%=      5-min Rain = 0
KCL1 091817Z 01008KT 07/M05 A3034 RMK A01 T00691051  RH  042%=      5-min Rain = 0
KCL1 091818Z 01005KT 07/M05 A3034 RMK A01 T00681054  RH  042%=      5-min Rain = 0
KCL1 091819Z 36005KT 07/M05 A3034 RMK A01 T00661054  RH  042%=      5-min Rain = 0
KCL1 091820Z 02005KT 07/M06 A3034 RMK A01 T00651055  RH  042%=      5-min Rain = 0
KCL1 091821Z 35004KT 07/M06 A3034 RMK A01 T00651055  RH  042%=      5-min Rain = 0
KCL1 091822Z 36003KT 07/M05 A3034 RMK A01 T00651054  RH  042%=      5-min Rain = 0
KCL1 091823Z 02002KT 07/M05 A3034 RMK A01 T00651053  RH  043%=      5-min Rain = 0
KCL1 091824Z 04006KT 07/M05 A3034 RMK A01 T00691050  RH  042%=      5-min Rain = 0
KCL1 091825Z 05007KT 07/M05 A3034 RMK A01 T00711052  RH  041%=      5-min Rain = 0
KCL1 091826Z 03005KT 07/M05 A3034 RMK A01 T00711053  RH  041%=      5-min Rain = 0
KCL1 091827Z 35006KT 07/M06 A3034 RMK A01 T00701055  RH  041%=      5-min Rain = 0
KCL1 091828Z 35005KT 07/M05 A3034 RMK A01 T00701054  RH  041%=      5-min Rain = 0
KCL1 091829Z 35007KT 07/M05 A3034 RMK A01 T00701054  RH  041%=      5-min Rain = 0
KCL1 091830Z 00006KT 07/M05 A3034 RMK A01 T00701054  RH  041%=      5-min Rain = 0
KCL1 091831Z 04006KT 07/M06 A3034 RMK A01 T00711055  RH  040%=      5-min Rain = 0
KCL1 091832Z 03008KT 07/M05 A3033 RMK A01 T00731052  RH  041%=      5-min Rain = 0
KCL1 091833Z 03007KT 07/M05 A3034 RMK A01 T00741054  RH  040%=      5-min Rain = 0
KCL1 091834Z 03006KT 07/M06 A3033 RMK A01 T00721056  RH  039%=      5-min Rain = 0
KCL1 091835Z 00004KT 07/M06 A3033 RMK A01 T00711058  RH  039%=      5-min Rain = 0
KCL1 091836Z 01006KT 07/M06 A3033 RMK A01 T00701058  RH  040%=      5-min Rain = 0
KCL1 091837Z 01005G10KT 07/M06 A3033 RMK A01 T00691056  RH  040%=      5-min Rain = 0
KCL1 091838Z 00008KT 07/M06 A3033 RMK A01 T00701057  RH  040%=      5-min Rain = 0
KCL1 091839Z 01006KT 07/M06 A3033 RMK A01 T00691059  RH  040%=      5-min Rain = 0
KCL1 091840Z 02007KT 07/M06 A3033 RMK A01 T00691057  RH  040%=      5-min Rain = 0
KCL1 091841Z 02008KT 07/M05 A3033 RMK A01 T00721054  RH  040%=      5-min Rain = 0
KCL1 091842Z 02005KT 07/M06 A3033 RMK A01 T00721056  RH  040%=      5-min Rain = 0
KCL1 091843Z 03006KT 07/M06 A3033 RMK A01 T00711055  RH  040%=      5-min Rain = 0
KCL1 091844Z 05005KT 07/M06 A3033 RMK A01 T00711055  RH  040%=      5-min Rain = 0
KCL1 091845Z 01006KT 07/M06 A3033 RMK A01 T00711055  RH  040%=      5-min Rain = 0
KCL1 091846Z 01004KT 07/M06 A3033 RMK A01 T00711056  RH  040%=      5-min Rain = 0
KCL1 091847Z 34003KT 07/M06 A3033 RMK A01 T00701056  RH  040%=      5-min Rain = 0
KCL1 091848Z 01005KT 07/M05 A3033 RMK A01 T00721054  RH  040%=      5-min Rain = 0
KCL1 091849Z 34002KT 07/M06 A3033 RMK A01 T00721055  RH  040%=      5-min Rain = 0
KCL1 091850Z 36004KT 07/M06 A3033 RMK A01 T00711056  RH  040%=      5-min Rain = 0
KCL1 091851Z 02006KT 07/M06 A3033 RMK A01 T00711055  RH  040%=      5-min Rain = 0
KCL1 091852Z 01007KT 07/M05 A3033 RMK A01 T00731052  RH  040%=      5-min Rain = 0
KCL1 091853Z 02007KT 08/M05 A3033 RMK A01 T00751053  RH  040%=      5-min Rain = 0
KCL1 091854Z 03005KT 07/M06 A3033 RMK A01 T00741055  RH  040%=      5-min Rain = 0
KCL1 091855Z 03004KT 07/M06 A3033 RMK A01 T00731055  RH  040%=      5-min Rain = 0
KCL1 091856Z 04001KT 07/M06 A3032 RMK A01 T00721056  RH  040%=      5-min Rain = 0
KCL1 091857Z 01001KT 07/M06 A3032 RMK A01 T00721055  RH  040%=      5-min Rain = 0
KCL1 091858Z 03005KT 07/M05 A3032 RMK A01 T00741053  RH  040%=      5-min Rain = 0
KCL1 091859Z 03006KT 08/M05 A3032 RMK A01 T00761053  RH  040%=      5-min Rain = 0
KCL1 091900Z 04004KT 08/M06 A3032 RMK A01 T00751056  RH  039%=      5-min Rain = 0
KCL1 091901Z 04004KT 07/M06 A3032 RMK A01 T00731056  RH  039%=      5-min Rain = 0
KCL1 091902Z 04005KT 07/M05 A3032 RMK A01 T00731054  RH  040%=      5-min Rain = 0
KCL1 091903Z 03006KT 08/M05 A3032 RMK A01 T00761053  RH  040%=      5-min Rain = 0
KCL1 091904Z 02005KT 08/M05 A3032 RMK A01 T00771054  RH  039%=      5-min Rain = 0
KCL1 091905Z 01006KT 08/M05 A3032 RMK A01 T00761053  RH  039%=      5-min Rain = 0
KCL1 091906Z 03004KT 08/M06 A3032 RMK A01 T00761056  RH  039%=      5-min Rain = 0
KCL1 091907Z 36002KT 08/M06 A3032 RMK A01 T00751056  RH  039%=      5-min Rain = 0
KCL1 091908Z 35004KT 08/M05 A3032 RMK A01 T00751054  RH  039%=      5-min Rain = 0
KCL1 091909Z 01007KT 08/M06 A3032 RMK A01 T00761055  RH  039%=      5-min Rain = 0
KCL1 091910Z 36006KT 08/M05 A3032 RMK A01 T00761054  RH  039%=      5-min Rain = 0
KCL1 091911Z 35004KT 08/M05 A3032 RMK A01 T00751054  RH  039%=      5-min Rain = 0
KCL1 091912Z 35006KT 08/M05 A3032 RMK A01 T00761052  RH  040%=      5-min Rain = 0
KCL1 091913Z 35003KT 08/M05 A3032 RMK A01 T00771054  RH  039%=      5-min Rain = 0
KCL1 091914Z 34004KT 08/M05 A3032 RMK A01 T00761053  RH  039%=      5-min Rain = 0
KCL1 091915Z 35005KT 08/M05 A3032 RMK A01 T00771052  RH  040%=      5-min Rain = 0
KCL1 091916Z 35004KT 08/M05 A3032 RMK A01 T00761053  RH  039%=      5-min Rain = 0
KCL1 091917Z 35004KT 08/M05 A3032 RMK A01 T00751053  RH  040%=      5-min Rain = 0
KCL1 091918Z 32002KT 08/M05 A3032 RMK A01 T00751052  RH  040%=      5-min Rain = 0
KCL1 091919Z 30002KT 08/M05 A3032 RMK A01 T00761051  RH  040%=      5-min Rain = 0
KCL1 091920Z 32003KT 08/M05 A3032 RMK A01 T00771051  RH  040%=      5-min Rain = 0
KCL1 091921Z 32004KT 08/M05 A3032 RMK A01 T00781050  RH  040%=      5-min Rain = 0
KCL1 091922Z 33005KT 08/M05 A3032 RMK A01 T00801049  RH  040%=      5-min Rain = 0
KCL1 091923Z 35007KT 08/M05 A3032 RMK A01 T00811050  RH  039%=      5-min Rain = 0
KCL1 091924Z 00007KT 08/M05 A3032 RMK A01 T00821051  RH  039%=      5-min Rain = 0
KCL1 091925Z 02005KT 08/M06 A3032 RMK A01 T00801055  RH  038%=      5-min Rain = 0
KCL1 091926Z 00006KT 08/M05 A3032 RMK A01 T00781054  RH  039%=      5-min Rain = 0
KCL1 091927Z 00005KT 08/M05 A3032 RMK A01 T00801053  RH  039%=      5-min Rain = 0
KCL1 091928Z 01004KT 08/M05 A3032 RMK A01 T00791054  RH  038%=      5-min Rain = 0
KCL1 091929Z 02004KT 08/M05 A3032 RMK A01 T00801053  RH  039%=      5-min Rain = 0
KCL1 091930Z 03003KT 08/M05 A3032 RMK A01 T00801052  RH  039%=      5-min Rain = 0
KCL1 091931Z 07001KT 08/M05 A3032 RMK A01 T00791054  RH  039%=      5-min Rain = 0
KCL1 091932Z 11002KT 08/M05 A3032 RMK A01 T00781054  RH  039%=      5-min Rain = 0
KCL1 091933Z 35004KT 08/M05 A3032 RMK A01 T00781053  RH  039%=      5-min Rain = 0
KCL1 091934Z 35002KT 08/M05 A3032 RMK A01 T00781053  RH  039%=      5-min Rain = 0
KCL1 091935Z 32004KT 08/M05 A3032 RMK A01 T00781052  RH  039%=      5-min Rain = 0
KCL1 091936Z 29003KT 08/M05 A3032 RMK A01 T00811048  RH  040%=      5-min Rain = 0
KCL1 091937Z 29003KT 08/M05 A3032 RMK A01 T00831050  RH  039%=      5-min Rain = 0
KCL1 091938Z 31002KT 08/M05 A3031 RMK A01 T00821051  RH  039%=      5-min Rain = 0
KCL1 091939Z 34000KT 08/M05 A3031 RMK A01 T00831048  RH  039%=      5-min Rain = 0
KCL1 091940Z 01005KT 09/M05 A3031 RMK A01 T00851050  RH  038%=      5-min Rain = 0
KCL1 091941Z 05002KT 08/M05 A3031 RMK A01 T00831053  RH  038%=      5-min Rain = 0
KCL1 091942Z 35002KT 08/M05 A3031 RMK A01 T00821052  RH  038%=      5-min Rain = 0
KCL1 091943Z 35003KT 08/M05 A3031 RMK A01 T00831050  RH  039%=      5-min Rain = 0
KCL1 091944Z 36005KT 08/M05 A3031 RMK A01 T00841050  RH  038%=      5-min Rain = 0
KCL1 091945Z 01005KT 09/M05 A3031 RMK A01 T00851050  RH  038%=      5-min Rain = 0
KCL1 091946Z 04003KT 09/M05 A3031 RMK A01 T00861049  RH  038%=      5-min Rain = 0
KCL1 091947Z 03002KT 09/M05 A3031 RMK A01 T00871048  RH  038%=      5-min Rain = 0
KCL1 091948Z 03003KT 09/M05 A3031 RMK A01 T00871050  RH  037%=      5-min Rain = 0
KCL1 091949Z 05001KT 08/M05 A3031 RMK A01 T00841053  RH  037%=      5-min Rain = 0
KCL1 091950Z 02003KT 08/M05 A3031 RMK A01 T00831053  RH  038%=      5-min Rain = 0
KCL1 091951Z 01007KT 08/M05 A3031 RMK A01 T00821051  RH  038%=      5-min Rain = 0
KCL1 091952Z 00004KT 08/M05 A3031 RMK A01 T00831050  RH  039%=      5-min Rain = 0
KCL1 091953Z 04005KT 08/M05 A3031 RMK A01 T00831050  RH  039%=      5-min Rain = 0
KCL1 091954Z 05004KT 08/M05 A3031 RMK A01 T00841050  RH  038%=      5-min Rain = 0
KCL1 091955Z 07004KT 08/M05 A3031 RMK A01 T00841049  RH  039%=      5-min Rain = 0
KCL1 091956Z 08003KT 08/M05 A3031 RMK A01 T00841050  RH  038%=      5-min Rain = 0
KCL1 091957Z 06004KT 08/M05 A3031 RMK A01 T00841048  RH  039%=      5-min Rain = 0
KCL1 091958Z 04002KT 09/M05 A3031 RMK A01 T00851049  RH  038%=      5-min Rain = 0
KCL1 091959Z 35003KT 09/M05 A3031 RMK A01 T00861048  RH  039%=      5-min Rain = 0
KCL1 092000Z 32004KT 09/M05 A3031 RMK A01 T00881048  RH  038%=      5-min Rain = 0
KCL1 092001Z 30002KT 09/M05 A3031 RMK A01 T00881049  RH  038%=      5-min Rain = 0
KCL1 092002Z 29003KT 09/M05 A3031 RMK A01 T00881050  RH  037%=      5-min Rain = 0
KCL1 092003Z 31002KT 09/M05 A3031 RMK A01 T00871052  RH  037%=      5-min Rain = 0
KCL1 092004Z 33003KT 09/M05 A3031 RMK A01 T00861051  RH  037%=      5-min Rain = 0
KCL1 092005Z 35005KT 09/M05 A3031 RMK A01 T00861050  RH  038%=      5-min Rain = 0
KCL1 092006Z 01005KT 09/M05 A3031 RMK A01 T00871051  RH  037%=      5-min Rain = 0
KCL1 092007Z 01001KT 09/M05 A3031 RMK A01 T00871051  RH  037%=      5-min Rain = 0
KCL1 092008Z 01002KT 09/M05 A3031 RMK A01 T00891050  RH  037%=      5-min Rain = 0
KCL1 092009Z 04004KT 09/M05 A3031 RMK A01 T00891051  RH  037%=      5-min Rain = 0
KCL1 092010Z 05005KT 09/M05 A3031 RMK A01 T00891053  RH  036%=      5-min Rain = 0
KCL1 092011Z 03004KT 09/M05 A3031 RMK A01 T00891050  RH  037%=      5-min Rain = 0
KCL1 092012Z 05006KT 09/M05 A3031 RMK A01 T00911050  RH  037%=      5-min Rain = 0
KCL1 092013Z 05005KT 09/M05 A3031 RMK A01 T00901054  RH  036%=      5-min Rain = 0
KCL1 092014Z 06004KT 09/M05 A3031 RMK A01 T00871054  RH  036%=      5-min Rain = 0
KCL1 092015Z 05005KT 09/M05 A3031 RMK A01 T00871053  RH  037%=      5-min Rain = 0
KCL1 092016Z 11001KT 09/M06 A3031 RMK A01 T00861055  RH  036%=      5-min Rain = 0
KCL1 092017Z 12001KT 09/M05 A3031 RMK A01 T00851054  RH  037%=      5-min Rain = 0
KCL1 092018Z 09001KT 09/M05 A3031 RMK A01 T00861053  RH  037%=      5-min Rain = 0
KCL1 092019Z 07003KT 09/M05 A3031 RMK A01 T00871054  RH  036%=      5-min Rain = 0
KCL1 092020Z 08003KT 09/M05 A3031 RMK A01 T00861054  RH  037%=      5-min Rain = 0
KCL1 092021Z 10003KT 09/M05 A3031 RMK A01 T00861053  RH  037%=      5-min Rain = 0
KCL1 092022Z 09002KT 09/M05 A303 RMK A01 T00871051  RH  037%=      5-min Rain = 0
KCL1 092023Z 07001KT 09/M05 A303 RMK A01 T00881052  RH  037%=      5-min Rain = 0
KCL1 092024Z 31003KT 09/M05 A303 RMK A01 T00891050  RH  037%=      5-min Rain = 0
KCL1 092025Z 26003KT 09/M05 A303 RMK A01 T00931049  RH  037%=      5-min Rain = 0
KCL1 092026Z 34001KT 09/M05 A303 RMK A01 T00931051  RH  036%=      5-min Rain = 0
KCL1 092027Z 36002KT 09/M05 A303 RMK A01 T00931050  RH  036%=      5-min Rain = 0
KCL1 092028Z 01003KT 09/M05 A303 RMK A01 T00941050  RH  036%=      5-min Rain = 0
KCL1 092029Z 02003KT 09/M05 A303 RMK A01 T00941051  RH  036%=      5-min Rain = 0
KCL1 092030Z 01006KT 09/M05 A303 RMK A01 T00941053  RH  035%=      5-min Rain = 0
KCL1 092031Z 35005KT 09/M06 A303 RMK A01 T00931055  RH  035%=      5-min Rain = 0
KCL1 092032Z 35005KT 09/M06 A303 RMK A01 T00921055  RH  035%=      5-min Rain = 0
KCL1 092033Z 03005KT 09/M06 A3031 RMK A01 T00921055  RH  035%=      5-min Rain = 0
KCL1 092034Z 02006KT 09/M06 A3031 RMK A01 T00921055  RH  035%=      5-min Rain = 0
KCL1 092035Z 34007KT 09/M06 A3031 RMK A01 T00931055  RH  035%=      5-min Rain = 0
KCL1 092036Z 35005KT 09/M06 A3031 RMK A01 T00911059  RH  034%=      5-min Rain = 0
KCL1 092037Z 01005KT 09/M06 A3031 RMK A01 T00891059  RH  035%=      5-min Rain = 0
KCL1 092038Z 02004KT 09/M06 A3031 RMK A01 T00891057  RH  035%=      5-min Rain = 0
KCL1 092039Z 35004KT 09/M06 A3031 RMK A01 T00891056  RH  035%=      5-min Rain = 0
KCL1 092040Z 01005KT 09/M06 A3031 RMK A01 T00891057  RH  035%=      5-min Rain = 0
KCL1 092041Z 01005KT 09/M06 A3031 RMK A01 T00891057  RH  035%=      5-min Rain = 0
KCL1 092042Z 01003KT 09/M06 A3031 RMK A01 T00891058  RH  035%=      5-min Rain = 0
KCL1 092043Z 35004KT 09/M06 A3031 RMK A01 T00891059  RH  035%=      5-min Rain = 0
KCL1 092044Z 01004KT 09/M06 A3031 RMK A01 T00901057  RH  035%=      5-min Rain = 0
KCL1 092045Z 01002KT 09/M06 A3031 RMK A01 T00891056  RH  035%=      5-min Rain = 0
KCL1 092046Z 01003KT 09/M06 A3031 RMK A01 T00901056  RH  035%=      5-min Rain = 0
KCL1 092047Z 02003KT 09/M06 A3031 RMK A01 T00901056  RH  035%=      5-min Rain = 0
KCL1 092048Z 03002KT 09/M06 A3031 RMK A01 T00901057  RH  035%=      5-min Rain = 0
KCL1 092049Z 02002KT 09/M06 A3031 RMK A01 T00891058  RH  035%=      5-min Rain = 0
KCL1 092050Z 35001KT 09/M06 A3031 RMK A01 T00881059  RH  035%=      5-min Rain = 0
KCL1 092051Z 04002KT 09/M06 A3031 RMK A01 T00871059  RH  035%=      5-min Rain = 0
KCL1 092052Z 06002KT 09/M06 A3031 RMK A01 T00871058  RH  035%=      5-min Rain = 0
KCL1 092053Z 05001KT 09/M06 A3031 RMK A01 T00871059  RH  035%=      5-min Rain = 0
KCL1 092054Z 02001KT 09/M06 A3031 RMK A01 T00881059  RH  035%=      5-min Rain = 0
KCL1 092055Z 03004KT 09/M06 A303 RMK A01 T00901056  RH  035%=      5-min Rain = 0
KCL1 092056Z 35006KT 09/M06 A303 RMK A01 T00911056  RH  035%=      5-min Rain = 0
KCL1 092057Z 01006KT 09/M06 A3031 RMK A01 T00911056  RH  035%=      5-min Rain = 0
KCL1 092058Z 02004KT 09/M06 A3031 RMK A01 T00901056  RH  035%=      5-min Rain = 0
KCL1 092059Z 04004KT 09/M06 A3031 RMK A01 T00901056  RH  035%=      5-min Rain = 0
KCL1 092100Z 06002KT 09/M06 A3031 RMK A01 T00901055  RH  035%=      5-min Rain = 0
KCL1 092101Z 28002KT 09/M05 A3031 RMK A01 T00911054  RH  035%=      5-min Rain = 0
KCL1 092102Z 30002KT 09/M06 A3031 RMK A01 T00911055  RH  035%=      5-min Rain = 0
KCL1 092103Z 00003KT 09/M05 A3031 RMK A01 T00931054  RH  035%=      5-min Rain = 0
KCL1 092104Z 03003KT 09/M05 A3031 RMK A01 T00931054  RH  035%=      5-min Rain = 0
KCL1 092105Z 04003KT 09/M06 A3031 RMK A01 T00931055  RH  035%=      5-min Rain = 0
KCL1 092106Z 05002KT 09/M06 A3031 RMK A01 T00941055  RH  034%=      5-min Rain = 0
KCL1 092107Z 06002KT 09/M05 A3031 RMK A01 T00931054  RH  035%=      5-min Rain = 0
KCL1 092108Z 01001KT 09/M05 A3031 RMK A01 T00941053  RH  035%=      5-min Rain = 0
KCL1 092109Z 05001KT 10/M05 A3031 RMK A01 T00961052  RH  035%=      5-min Rain = 0
KCL1 092110Z 00003KT 10/M05 A3031 RMK A01 T00971053  RH  034%=      5-min Rain = 0
KCL1 092111Z 33004KT 10/M05 A3031 RMK A01 T00961054  RH  034%=      5-min Rain = 0
KCL1 092112Z 33004KT 10/M06 A3031 RMK A01 T00951056  RH  034%=      5-min Rain = 0
KCL1 092113Z 00006KT 09/M06 A3031 RMK A01 T00941055  RH  034%=      5-min Rain = 0
KCL1 092114Z 02005KT 09/M06 A3031 RMK A01 T00941056  RH  034%=      5-min Rain = 0
KCL1 092115Z 00005KT 09/M06 A3031 RMK A01 T00941055  RH  035%=      5-min Rain = 0
KCL1 092116Z 01005KT 10/M06 A3031 RMK A01 T00951057  RH  034%=      5-min Rain = 0
KCL1 092117Z 03006KT 09/M06 A3031 RMK A01 T00921060  RH  034%=      5-min Rain = 0
KCL1 092118Z 03005KT 09/M06 A3031 RMK A01 T00911060  RH  034%=      5-min Rain = 0
KCL1 092119Z 02003KT 09/M06 A3031 RMK A01 T00901060  RH  034%=      5-min Rain = 0
KCL1 092120Z 05004KT 09/M06 A3031 RMK A01 T00911058  RH  034%=      5-min Rain = 0
KCL1 092121Z 04003KT 09/M06 A3031 RMK A01 T00921060  RH  034%=      5-min Rain = 0
KCL1 092122Z 03003KT 09/M06 A3031 RMK A01 T00921060  RH  034%=      5-min Rain = 0
KCL1 092123Z 36003KT 09/M06 A3031 RMK A01 T00921059  RH  034%=      5-min Rain = 0
KCL1 092124Z 36006KT 09/M06 A3031 RMK A01 T00941057  RH  034%=      5-min Rain = 0
KCL1 092125Z 03005KT 09/M06 A3031 RMK A01 T00931058  RH  034%=      5-min Rain = 0
KCL1 092126Z 02004KT 09/M06 A3031 RMK A01 T00921059  RH  034%=      5-min Rain = 0
KCL1 092127Z 04002KT 09/M06 A3031 RMK A01 T00921059  RH  034%=      5-min Rain = 0
KCL1 092128Z 02003KT 09/M06 A3031 RMK A01 T00921059  RH  034%=      5-min Rain = 0
KCL1 092129Z 01005KT 09/M06 A3031 RMK A01 T00921058  RH  034%=      5-min Rain = 0
KCL1 092130Z 36005KT 09/M06 A3031 RMK A01 T00921058  RH  034%=      5-min Rain = 0
KCL1 092131Z 02005KT 09/M06 A3031 RMK A01 T00921060  RH  034%=      5-min Rain = 0
KCL1 092132Z 02004KT 09/M06 A3031 RMK A01 T00911060  RH  034%=      5-min Rain = 0
KCL1 092133Z 01005KT 09/M06 A3031 RMK A01 T00911059  RH  034%=      5-min Rain = 0
KCL1 092134Z 02004KT 09/M06 A3031 RMK A01 T00911059  RH  034%=      5-min Rain = 0
KCL1 092135Z 36005KT 09/M06 A3031 RMK A01 T00911059  RH  034%=      5-min Rain = 0
KCL1 092136Z 34005KT 09/M06 A3031 RMK A01 T00911060  RH  034%=      5-min Rain = 0
KCL1 092137Z 33004KT 09/M06 A3031 RMK A01 T00911058  RH  034%=      5-min Rain = 0
KCL1 092138Z 31002KT 09/M06 A3031 RMK A01 T00931057  RH  034%=      5-min Rain = 0
KCL1 092139Z 35001KT 09/M06 A3031 RMK A01 T00931058  RH  034%=      5-min Rain = 0
KCL1 092140Z 34003KT 09/M06 A3031 RMK A01 T00941058  RH  034%=      5-min Rain = 0
KCL1 092141Z 34004KT 10/M06 A3031 RMK A01 T00951058  RH  034%=      5-min Rain = 0
KCL1 092142Z 00006KT 09/M06 A3031 RMK A01 T00941060  RH  033%=      5-min Rain = 0
KCL1 092143Z 35006KT 09/M06 A3031 RMK A01 T00941063  RH  033%=      5-min Rain = 0
KCL1 092144Z 33006KT 09/M07 A3031 RMK A01 T00941066  RH  032%=      5-min Rain = 0
KCL1 092145Z 32005KT 10/M07 A3031 RMK A01 T00951069  RH  031%=      5-min Rain = 0
KCL1 092146Z 31004KT 10/M07 A3031 RMK A01 T00951070  RH  030%=      5-min Rain = 0
KCL1 092147Z 30004KT 10/M07 A3031 RMK A01 T00951071  RH  030%=      5-min Rain = 0
KCL1 092148Z 30004KT 09/M07 A3031 RMK A01 T00941071  RH  030%=      5-min Rain = 0
KCL1 092149Z 30004KT 10/M07 A3031 RMK A01 T00951071  RH  030%=      5-min Rain = 0
KCL1 092150Z 30003KT 10/M07 A3031 RMK A01 T00951069  RH  031%=      5-min Rain = 0
KCL1 092151Z 30003KT 10/M07 A303 RMK A01 T00961066  RH  031%=      5-min Rain = 0
KCL1 092152Z 33003KT 10/M07 A303 RMK A01 T00981068  RH  031%=      5-min Rain = 0
KCL1 092153Z 29003KT 10/M07 A303 RMK A01 T00971069  RH  030%=      5-min Rain = 0
KCL1 092154Z 33002KT 10/M07 A303 RMK A01 T00971068  RH  030%=      5-min Rain = 0
KCL1 092155Z 34004KT 10/M07 A303 RMK A01 T00971067  RH  031%=      5-min Rain = 0
KCL1 092156Z 35005KT 10/M07 A303 RMK A01 T00981066  RH  031%=      5-min Rain = 0
KCL1 092157Z 03004KT 10/M06 A303 RMK A01 T00981064  RH  031%=      5-min Rain = 0
KCL1 092158Z 34004KT 10/M06 A303 RMK A01 T00971063  RH  032%=      5-min Rain = 0
KCL1 092159Z 34003KT 10/M07 A303 RMK A01 T00961065  RH  031%=      5-min Rain = 0
KCL1 092200Z 35002KT 10/M07 A303 RMK A01 T00951067  RH  031%=      5-min Rain = 0
KCL1 092201Z 33002KT 10/M07 A303 RMK A01 T00951066  RH  031%=      5-min Rain = 0
KCL1 092202Z 32002KT 10/M07 A303 RMK A01 T00951066  RH  031%=      5-min Rain = 0
KCL1 092203Z 32001KT 10/M07 A303 RMK A01 T00961067  RH  031%=      5-min Rain = 0
KCL1 092204Z 32003KT 10/M07 A303 RMK A01 T00971068  RH  031%=      5-min Rain = 0
KCL1 092205Z 32006KT 10/M07 A303 RMK A01 T00971066  RH  031%=      5-min Rain = 0
KCL1 092206Z 03005KT 10/M07 A303 RMK A01 T00971065  RH  031%=      5-min Rain = 0
KCL1 092207Z 02005KT 10/M07 A303 RMK A01 T00961065  RH  032%=      5-min Rain = 0
KCL1 092208Z 02004KT 10/M07 A303 RMK A01 T00951065  RH  032%=      5-min Rain = 0
KCL1 092209Z 01005KT 09/M07 A303 RMK A01 T00941065  RH  032%=      5-min Rain = 0
KCL1 092210Z 36003KT 09/M07 A303 RMK A01 T00941065  RH  032%=      5-min Rain = 0
KCL1 092211Z 01003KT 09/M07 A303 RMK A01 T00941065  RH  032%=      5-min Rain = 0
KCL1 092212Z 01005KT 09/M07 A303 RMK A01 T00941065  RH  032%=      5-min Rain = 0
KCL1 092213Z 01005KT 09/M07 A303 RMK A01 T00931068  RH  031%=      5-min Rain = 0
KCL1 092214Z 01003KT 09/M07 A303 RMK A01 T00921069  RH  031%=      5-min Rain = 0
KCL1 092215Z 00002KT 09/M07 A303 RMK A01 T00931070  RH  031%=      5-min Rain = 0
KCL1 092216Z 35002KT 09/M07 A303 RMK A01 T00921070  RH  031%=      5-min Rain = 0
KCL1 092217Z 35003KT 09/M07 A303 RMK A01 T00931070  RH  031%=      5-min Rain = 0
KCL1 092218Z 01004KT 09/M07 A303 RMK A01 T00931072  RH  030%=      5-min Rain = 0
KCL1 092219Z 02003KT 09/M08 A303 RMK A01 T00931075  RH  030%=      5-min Rain = 0
KCL1 092220Z 03002KT 09/M08 A303 RMK A01 T00921076  RH  030%=      5-min Rain = 0
KCL1 092221Z 03002KT 09/M08 A303 RMK A01 T00921076  RH  030%=      5-min Rain = 0
KCL1 092222Z 02002KT 09/M08 A303 RMK A01 T00921076  RH  030%=      5-min Rain = 0
KCL1 092223Z 02002KT 09/M07 A303 RMK A01 T00921074  RH  030%=      5-min Rain = 0
KCL1 092224Z 05003KT 09/M07 A303 RMK A01 T00931074  RH  030%=      5-min Rain = 0
KCL1 092225Z 03003KT 09/M07 A303 RMK A01 T00921074  RH  030%=      5-min Rain = 0
KCL1 092226Z 02001KT 09/M08 A303 RMK A01 T00911075  RH  030%=      5-min Rain = 0
KCL1 092227Z 01002KT 09/M07 A303 RMK A01 T00921074  RH  030%=      5-min Rain = 0
KCL1 092228Z 35003KT 09/M07 A303 RMK A01 T00931073  RH  030%=      5-min Rain = 0
KCL1 092229Z 01003KT 09/M08 A303 RMK A01 T00931080  RH  029%=      5-min Rain = 0
KCL1 092230Z 01004KT 09/M08 A303 RMK A01 T00931082  RH  028%=      5-min Rain = 0
KCL1 092231Z 02003KT 09/M09 A303 RMK A01 T00921085  RH  028%=      5-min Rain = 0
KCL1 092232Z 05001KT 09/M09 A303 RMK A01 T00911086  RH  028%=      5-min Rain = 0
KCL1 092233Z 06001KT 09/M09 A303 RMK A01 T00921085  RH  028%=      5-min Rain = 0
KCL1 092234Z 03002KT 09/M09 A303 RMK A01 T00921085  RH  028%=      5-min Rain = 0
KCL1 092235Z 02001KT 09/M08 A303 RMK A01 T00921084  RH  028%=      5-min Rain = 0
KCL1 092236Z 04003KT 09/M08 A303 RMK A01 T00921082  RH  028%=      5-min Rain = 0
KCL1 092237Z 05003KT 09/M08 A3031 RMK A01 T00931079  RH  029%=      5-min Rain = 0
KCL1 092238Z 03003KT 09/M08 A3031 RMK A01 T00931080  RH  029%=      5-min Rain = 0
KCL1 092239Z 01003KT 09/M09 A3031 RMK A01 T00931085  RH  028%=      5-min Rain = 0
KCL1 092240Z 01005KT 09/M09 A3031 RMK A01 T00931088  RH  027%=      5-min Rain = 0
KCL1 092241Z 02004KT 09/M09 A3031 RMK A01 T00921090  RH  027%=      5-min Rain = 0
KCL1 092242Z 00003KT 09/M09 A3031 RMK A01 T00911090  RH  027%=      5-min Rain = 0
KCL1 092243Z 01004KT 09/M09 A3031 RMK A01 T00911088  RH  027%=      5-min Rain = 0
KCL1 092244Z 01005KT 09/M09 A3031 RMK A01 T00921089  RH  027%=      5-min Rain = 0
KCL1 092245Z 01005KT 09/M09 A3031 RMK A01 T00911091  RH  027%=      5-min Rain = 0
KCL1 092246Z 02005KT 09/M09 A3031 RMK A01 T00911091  RH  027%=      5-min Rain = 0
KCL1 092247Z 02005KT 09/M09 A3031 RMK A01 T00901091  RH  027%=      5-min Rain = 0
KCL1 092248Z 01004KT 09/M09 A3031 RMK A01 T00901090  RH  027%=      5-min Rain = 0
KCL1 092249Z 02005KT 09/M09 A3031 RMK A01 T00911089  RH  027%=      5-min Rain = 0
KCL1 092250Z 02004KT 09/M09 A3031 RMK A01 T00901089  RH  027%=      5-min Rain = 0
KCL1 092251Z 02004KT 09/M09 A3031 RMK A01 T00901089  RH  027%=      5-min Rain = 0
KCL1 092252Z 03004KT 09/M09 A3031 RMK A01 T00901088  RH  027%=      5-min Rain = 0
KCL1 092253Z 03004KT 09/M09 A3031 RMK A01 T00891088  RH  028%=      5-min Rain = 0
KCL1 092254Z 04004KT 09/M09 A3031 RMK A01 T00891087  RH  028%=      5-min Rain = 0
KCL1 092255Z 02004KT 09/M09 A3031 RMK A01 T00891087  RH  028%=      5-min Rain = 0
KCL1 092256Z 01004KT 09/M09 A3031 RMK A01 T00891088  RH  028%=      5-min Rain = 0
KCL1 092257Z 02004KT 09/M09 A3031 RMK A01 T00881089  RH  028%=      5-min Rain = 0
KCL1 092258Z 02004KT 09/M09 A3031 RMK A01 T00891088  RH  028%=      5-min Rain = 0
KCL1 092259Z 01004KT 09/M09 A3031 RMK A01 T00881088  RH  028%=      5-min Rain = 0
KCL1 092300Z 02003KT 09/M09 A3031 RMK A01 T00881088  RH  028%=      5-min Rain = 0
KCL1 092301Z 02003KT 09/M09 A3031 RMK A01 T00871088  RH  028%=      5-min Rain = 0
KCL1 092302Z 01004KT 09/M09 A3031 RMK A01 T00871088  RH  028%=      5-min Rain = 0
KCL1 092303Z 01004KT 09/M09 A3031 RMK A01 T00871088  RH  028%=      5-min Rain = 0
KCL1 092304Z 02003KT 09/M09 A3031 RMK A01 T00871088  RH  028%=      5-min Rain = 0
KCL1 092305Z 02003KT 09/M09 A3031 RMK A01 T00871087  RH  028%=      5-min Rain = 0
KCL1 092306Z 02003KT 09/M09 A3031 RMK A01 T00861088  RH  028%=      5-min Rain = 0
KCL1 092307Z 03004KT 09/M09 A3031 RMK A01 T00861087  RH  028%=      5-min Rain = 0
KCL1 092308Z 03004KT 09/M09 A3031 RMK A01 T00861087  RH  029%=      5-min Rain = 0
KCL1 092309Z 03003KT 09/M09 A3031 RMK A01 T00851088  RH  029%=      5-min Rain = 0
KCL1 092310Z 03004KT 08/M09 A3031 RMK A01 T00841088  RH  029%=      5-min Rain = 0
KCL1 092311Z 03005KT 08/M09 A3032 RMK A01 T00831088  RH  029%=      5-min Rain = 0
KCL1 092312Z 03005KT 08/M09 A3032 RMK A01 T00821087  RH  029%=      5-min Rain = 0
KCL1 092313Z 03005KT 08/M09 A3032 RMK A01 T00811087  RH  029%=      5-min Rain = 0
KCL1 092314Z 03005KT 08/M09 A3032 RMK A01 T00801088  RH  029%=      5-min Rain = 0
KCL1 092315Z 03005KT 08/M09 A3032 RMK A01 T00791088  RH  030%=      5-min Rain = 0
KCL1 092316Z 03005KT 08/M09 A3032 RMK A01 T00791087  RH  030%=      5-min Rain = 0
KCL1 092317Z 03005KT 08/M09 A3032 RMK A01 T00781087  RH  030%=      5-min Rain = 0
KCL1 092318Z 03005KT 08/M09 A3032 RMK A01 T00771088  RH  030%=      5-min Rain = 0
KCL1 092319Z 03005KT 08/M09 A3032 RMK A01 T00771088  RH  030%=      5-min Rain = 0
KCL1 092320Z 03005KT 08/M09 A3032 RMK A01 T00761088  RH  030%=      5-min Rain = 0
KCL1 092321Z 03005KT 08/M09 A3032 RMK A01 T00751088  RH  030%=      5-min Rain = 0
KCL1 092322Z 04005KT 08/M09 A3032 RMK A01 T00751088  RH  030%=      5-min Rain = 0
KCL1 092323Z 03005KT 07/M09 A3032 RMK A01 T00741088  RH  031%=      5-min Rain = 0
KCL1 092324Z 03006KT 07/M09 A3032 RMK A01 T00741087  RH  031%=      5-min Rain = 0
KCL1 092325Z 03006KT 07/M09 A3031 RMK A01 T00721087  RH  031%=      5-min Rain = 0
KCL1 092326Z 03007KT 07/M09 A3031 RMK A01 T00721087  RH  031%=      5-min Rain = 0
KCL1 092327Z 03007KT 07/M09 A3031 RMK A01 T00711086  RH  032%=      5-min Rain = 0
KCL1 092328Z 03006KT 07/M09 A3031 RMK A01 T00701086  RH  032%=      5-min Rain = 0
KCL1 092329Z 03006KT 07/M09 A3031 RMK A01 T00681086  RH  032%=      5-min Rain = 0
KCL1 092330Z 03007KT 07/M09 A3031 RMK A01 T00661086  RH  033%=      5-min Rain = 0
KCL1 092331Z 04007KT 07/M09 A3031 RMK A01 T00651085  RH  033%=      5-min Rain = 0
KCL1 092332Z 04006KT 07/M09 A3031 RMK A01 T00651085  RH  033%=      5-min Rain = 0
KCL1 092333Z 04006KT 07/M09 A3031 RMK A01 T00651085  RH  033%=      5-min Rain = 0
KCL1 092334Z 04006KT 06/M09 A3031 RMK A01 T00641085  RH  034%=      5-min Rain = 0
KCL1 092335Z 04007KT 06/M09 A3031 RMK A01 T00631085  RH  034%=      5-min Rain = 0
KCL1 092336Z 03007KT 06/M09 A3031 RMK A01 T00621085  RH  034%=      5-min Rain = 0
KCL1 092337Z 03007KT 06/M08 A3031 RMK A01 T00611084  RH  034%=      5-min Rain = 0
KCL1 092338Z 03007KT 06/M08 A3031 RMK A01 T00601084  RH  035%=      5-min Rain = 0
KCL1 092339Z 03007KT 06/M08 A3032 RMK A01 T00591084  RH  035%=      5-min Rain = 0
KCL1 092340Z 03007KT 06/M08 A3032 RMK A01 T00591083  RH  035%=      5-min Rain = 0
KCL1 092341Z 03008KT 06/M08 A3032 RMK A01 T00581083  RH  036%=      5-min Rain = 0
KCL1 092342Z 03007KT 06/M08 A3032 RMK A01 T00571082  RH  036%=      5-min Rain = 0
KCL1 092343Z 03007KT 06/M08 A3032 RMK A01 T00561082  RH  036%=      5-min Rain = 0
KCL1 092344Z 03008KT 06/M08 A3032 RMK A01 T00561082  RH  036%=      5-min Rain = 0
KCL1 092345Z 03007KT 06/M08 A3032 RMK A01 T00561081  RH  036%=      5-min Rain = 0
KCL1 092346Z 02008KT 06/M08 A3032 RMK A01 T00561081  RH  037%=      5-min Rain = 0
KCL1 092347Z 02008KT 06/M08 A3032 RMK A01 T00551081  RH  037%=      5-min Rain = 0
KCL1 092348Z 02009KT 06/M08 A3032 RMK A01 T00551080  RH  037%=      5-min Rain = 0
KCL1 092349Z 02009KT 05/M08 A3032 RMK A01 T00541080  RH  037%=      5-min Rain = 0
KCL1 092350Z 02009KT 05/M08 A3032 RMK A01 T00531080  RH  038%=      5-min Rain = 0
KCL1 092351Z 02009KT 05/M08 A3032 RMK A01 T00531079  RH  038%=      5-min Rain = 0
KCL1 092352Z 02009KT 05/M08 A3032 RMK A01 T00521079  RH  038%=      5-min Rain = 0
KCL1 092353Z 02009KT 05/M08 A3032 RMK A01 T00521079  RH  038%=      5-min Rain = 0
KCL1 092354Z 02009KT 05/M08 A3032 RMK A01 T00511079  RH  038%=      5-min Rain = 0
KCL1 092355Z 02009KT 05/M08 A3032 RMK A01 T00501079  RH  039%=      5-min Rain = 0
KCL1 092356Z 02009KT 05/M08 A3032 RMK A01 T00501079  RH  039%=      5-min Rain = 0
KCL1 092357Z 02009KT 05/M08 A3032 RMK A01 T00501078  RH  039%=      5-min Rain = 0
KCL1 092358Z 02009KT 05/M08 A3032 RMK A01 T00501078  RH  039%=      5-min Rain = 0
KCL1 092359Z 02009KT 05/M08 A3032 RMK A01 T00501078  RH  039%=      5-min Rain = 0
KCL1 100000Z 02009KT 05/M08 A3032 RMK A01 T00501078  RH  039%=      5-min Rain = 0
KCL1 100001Z 02009KT 05/M08 A3032 RMK A01 T00501078  RH  039%=      5-min Rain = 0
KCL1 100002Z 02008KT 05/M08 A3032 RMK A01 T00501078  RH  039%=      5-min Rain = 0
KCL1 100003Z 02008KT 05/M08 A3032 RMK A01 T00501078  RH  039%=      5-min Rain = 0
KCL1 100004Z 02008KT 05/M08 A3032 RMK A01 T00501078  RH  039%=      5-min Rain = 0
KCL1 100005Z 02008KT 05/M08 A3032 RMK A01 T00491078  RH  039%=      5-min Rain = 0
KCL1 100006Z 02008KT 05/M08 A3032 RMK A01 T00491078  RH  039%=      5-min Rain = 0
KCL1 100007Z 02008KT 05/M08 A3033 RMK A01 T00501078  RH  039%=      5-min Rain = 0
KCL1 100008Z 02008KT 05/M08 A3033 RMK A01 T00491079  RH  039%=      5-min Rain = 0
KCL1 100009Z 02008KT 05/M08 A3033 RMK A01 T00471079  RH  040%=      5-min Rain = 0
KCL1 100010Z 02008KT 05/M08 A3033 RMK A01 T00461079  RH  040%=      5-min Rain = 0
KCL1 100011Z 02008KT 05/M08 A3033 RMK A01 T00461078  RH  040%=      5-min Rain = 0
KCL1 100012Z 02008KT 05/M08 A3033 RMK A01 T00471078  RH  040%=      5-min Rain = 0
KCL1 100013Z 02009KT 05/M08 A3033 RMK A01 T00471078  RH  040%=      5-min Rain = 0
KCL1 100014Z 02009KT 05/M08 A3033 RMK A01 T00471078  RH  040%=      5-min Rain = 0
KCL1 100015Z 01009KT 05/M08 A3033 RMK A01 T00471078  RH  040%=      5-min Rain = 0
KCL1 100016Z 01009KT 04/M08 A3033 RMK A01 T00441079  RH  040%=      5-min Rain = 0
KCL1 100017Z 01009KT 04/M08 A3033 RMK A01 T00401080  RH  041%=      5-min Rain = 0
KCL1 100018Z 01009KT 04/M08 A3033 RMK A01 T00371080  RH  042%=      5-min Rain = 0
KCL1 100019Z 01009KT 04/M08 A3033 RMK A01 T00361079  RH  043%=      5-min Rain = 0
KCL1 100020Z 01009KT 04/M08 A3033 RMK A01 T00351079  RH  043%=      5-min Rain = 0
KCL1 100021Z 01009KT 04/M08 A3033 RMK A01 T00351078  RH  043%=      5-min Rain = 0
KCL1 100022Z 01009KT 04/M08 A3034 RMK A01 T00361077  RH  043%=      5-min Rain = 0
KCL1 100023Z 01008KT 04/M08 A3034 RMK A01 T00381076  RH  043%=      5-min Rain = 0
KCL1 100024Z 01008KT 04/M08 A3034 RMK A01 T00401075  RH  043%=      5-min Rain = 0
KCL1 100025Z 01008KT 04/M08 A3034 RMK A01 T00421075  RH  042%=      5-min Rain = 0
KCL1 100026Z 02008KT 04/M08 A3034 RMK A01 T00421076  RH  042%=      5-min Rain = 0
KCL1 100027Z 02008KT 04/M08 A3033 RMK A01 T00431076  RH  042%=      5-min Rain = 0
KCL1 100028Z 01008KT 04/M08 A3033 RMK A01 T00421076  RH  042%=      5-min Rain = 0
KCL1 100029Z 01008KT 04/M08 A3033 RMK A01 T00421076  RH  042%=      5-min Rain = 0
KCL1 100030Z 01008KT 04/M08 A3033 RMK A01 T00411077  RH  042%=      5-min Rain = 0
KCL1 100031Z 02008KT 04/M08 A3033 RMK A01 T00401077  RH  042%=      5-min Rain = 0
KCL1 100032Z 02008KT 04/M08 A3033 RMK A01 T00401076  RH  043%=      5-min Rain = 0
KCL1 100033Z 02007KT 04/M08 A3033 RMK A01 T00401076  RH  043%=      5-min Rain = 0
KCL1 100034Z 02007KT 04/M08 A3033 RMK A01 T00401076  RH  043%=      5-min Rain = 0
KCL1 100035Z 02007KT 04/M08 A3033 RMK A01 T00391076  RH  043%=      5-min Rain = 0
KCL1 100036Z 02007KT 04/M08 A3033 RMK A01 T00391075  RH  043%=      5-min Rain = 0
KCL1 100037Z 02007KT 04/M08 A3033 RMK A01 T00401075  RH  043%=      5-min Rain = 0
KCL1 100038Z 02007KT 04/M08 A3033 RMK A01 T00401075  RH  043%=      5-min Rain = 0
KCL1 100039Z 02007KT 04/M08 A3033 RMK A01 T00391076  RH  043%=      5-min Rain = 0
KCL1 100040Z 02007KT 04/M08 A3033 RMK A01 T00401075  RH  043%=      5-min Rain = 0
KCL1 100041Z 02007KT 04/M08 A3033 RMK A01 T00411075  RH  042%=      5-min Rain = 0
KCL1 100042Z 02007KT 04/M08 A3033 RMK A01 T00421076  RH  042%=      5-min Rain = 0
KCL1 100043Z 02007KT 04/M08 A3033 RMK A01 T00421076  RH  042%=      5-min Rain = 0
KCL1 100044Z 02007KT 04/M08 A3033 RMK A01 T00431076  RH  042%=      5-min Rain = 0
KCL1 100045Z 02007KT 04/M08 A3033 RMK A01 T00421076  RH  042%=      5-min Rain = 0
KCL1 100046Z 02007KT 04/M08 A3033 RMK A01 T00431077  RH  041%=      5-min Rain = 0
KCL1 100047Z 02007KT 04/M08 A3034 RMK A01 T00441077  RH  041%=      5-min Rain = 0
KCL1 100048Z 03007KT 04/M08 A3034 RMK A01 T00441077  RH  041%=      5-min Rain = 0
KCL1 100049Z 03008KT 04/M08 A3034 RMK A01 T00441077  RH  041%=      5-min Rain = 0
KCL1 100050Z 03008KT 04/M08 A3034 RMK A01 T00441078  RH  041%=      5-min Rain = 0
KCL1 100051Z 03008KT 04/M08 A3034 RMK A01 T00431078  RH  041%=      5-min Rain = 0
KCL1 100052Z 03008KT 04/M08 A3034 RMK A01 T00421079  RH  041%=      5-min Rain = 0
KCL1 100053Z 03008KT 04/M08 A3034 RMK A01 T00401079  RH  041%=      5-min Rain = 0
KCL1 100054Z 03008KT 04/M08 A3034 RMK A01 T00391079  RH  042%=      5-min Rain = 0
KCL1 100055Z 04008KT 04/M08 A3034 RMK A01 T00391079  RH  042%=      5-min Rain = 0
KCL1 100056Z 04007KT 04/M08 A3034 RMK A01 T00371080  RH  042%=      5-min Rain = 0
KCL1 100057Z 04007KT 04/M08 A3034 RMK A01 T00361080  RH  042%=      5-min Rain = 0
KCL1 100058Z 04007KT 03/M08 A3034 RMK A01 T00341080  RH  043%=      5-min Rain = 0
KCL1 100059Z 04007KT 03/M08 A3034 RMK A01 T00331081  RH  043%=      5-min Rain = 0
KCL1 100100Z 04007KT 03/M08 A3034 RMK A01 T00321081  RH  043%=      5-min Rain = 0
KCL1 100101Z 04007KT 03/M08 A3034 RMK A01 T00311081  RH  043%=      5-min Rain = 0
KCL1 100102Z 05007KT 03/M08 A3034 RMK A01 T00301081  RH  044%=      5-min Rain = 0
KCL1 100103Z 05007KT 03/M08 A3034 RMK A01 T00301081  RH  044%=      5-min Rain = 0
KCL1 100104Z 05006KT 03/M08 A3034 RMK A01 T00291081  RH  044%=      5-min Rain = 0
KCL1 100105Z 04006KT 03/M08 A3034 RMK A01 T00301080  RH  044%=      5-min Rain = 0
KCL1 100106Z 04006KT 03/M08 A3034 RMK A01 T00321080  RH  044%=      5-min Rain = 0
KCL1 100107Z 04006KT 03/M08 A3034 RMK A01 T00331080  RH  043%=      5-min Rain = 0
KCL1 100108Z 04006KT 03/M08 A3034 RMK A01 T00341080  RH  043%=      5-min Rain = 0
KCL1 100109Z 04006KT 03/M08 A3034 RMK A01 T00341080  RH  043%=      5-min Rain = 0
KCL1 100110Z 04006KT 04/M08 A3034 RMK A01 T00351080  RH  043%=      5-min Rain = 0
KCL1 100111Z 04006KT 04/M08 A3034 RMK A01 T00351080  RH  043%=      5-min Rain = 0
KCL1 100112Z 03007KT 04/M08 A3034 RMK A01 T00351080  RH  043%=      5-min Rain = 0
KCL1 100113Z 03006KT 04/M08 A3034 RMK A01 T00361080  RH  043%=      5-min Rain = 0
KCL1 100114Z 03006KT 04/M08 A3034 RMK A01 T00361079  RH  043%=      5-min Rain = 0
KCL1 100115Z 03007KT 04/M08 A3034 RMK A01 T00361080  RH  043%=      5-min Rain = 0
KCL1 100116Z 04006KT 03/M08 A3034 RMK A01 T00341081  RH  043%=      5-min Rain = 0
KCL1 100117Z 04006KT 03/M08 A3034 RMK A01 T00341080  RH  043%=      5-min Rain = 0
KCL1 100118Z 04006KT 03/M08 A3034 RMK A01 T00331081  RH  043%=      5-min Rain = 0
KCL1 100119Z 04006KT 03/M08 A3034 RMK A01 T00331081  RH  043%=      5-min Rain = 0
KCL1 100120Z 04007KT 03/M08 A3034 RMK A01 T00331081  RH  043%=      5-min Rain = 0
KCL1 100121Z 03007KT 03/M08 A3034 RMK A01 T00331081  RH  043%=      5-min Rain = 0
KCL1 100122Z 03007KT 03/M08 A3034 RMK A01 T00331082  RH  043%=      5-min Rain = 0
KCL1 100123Z 03007KT 03/M08 A3035 RMK A01 T00341082  RH  042%=      5-min Rain = 0
KCL1 100124Z 03007KT 03/M08 A3034 RMK A01 T00341082  RH  042%=      5-min Rain = 0
KCL1 100125Z 03007KT 03/M08 A3034 RMK A01 T00341082  RH  043%=      5-min Rain = 0
KCL1 100126Z 03007KT 03/M08 A3034 RMK A01 T00331082  RH  043%=      5-min Rain = 0
KCL1 100127Z 03007KT 03/M08 A3034 RMK A01 T00311083  RH  043%=      5-min Rain = 0
KCL1 100128Z 03007KT 03/M08 A3034 RMK A01 T00301083  RH  043%=      5-min Rain = 0
KCL1 100129Z 03007KT 03/M08 A3034 RMK A01 T00291084  RH  043%=      5-min Rain = 0
KCL1 100130Z 03007KT 03/M08 A3034 RMK A01 T00281084  RH  043%=      5-min Rain = 0
KCL1 100131Z 03007KT 03/M08 A3035 RMK A01 T00271084  RH  044%=      5-min Rain = 0
KCL1 100132Z 02007KT 03/M08 A3035 RMK A01 T00251084  RH  044%=      5-min Rain = 0
KCL1 100133Z 02007KT 03/M08 A3035 RMK A01 T00251083  RH  045%=      5-min Rain = 0
KCL1 100134Z 02007KT 03/M08 A3035 RMK A01 T00251084  RH  044%=      5-min Rain = 0
KCL1 100135Z 02006KT 03/M08 A3035 RMK A01 T00261084  RH  044%=      5-min Rain = 0
KCL1 100136Z 02006KT 03/M08 A3035 RMK A01 T00261084  RH  044%=      5-min Rain = 0
KCL1 100137Z 02006KT 03/M08 A3035 RMK A01 T00261084  RH  044%=      5-min Rain = 0
KCL1 100138Z 02006KT 03/M08 A3035 RMK A01 T00271083  RH  044%=      5-min Rain = 0
KCL1 100139Z 01006KT 03/M08 A3035 RMK A01 T00281083  RH  044%=      5-min Rain = 0
KCL1 100140Z 01006KT 03/M08 A3035 RMK A01 T00271083  RH  044%=      5-min Rain = 0
KCL1 100141Z 01007KT 03/M08 A3035 RMK A01 T00271083  RH  044%=      5-min Rain = 0
KCL1 100142Z 01007KT 03/M08 A3035 RMK A01 T00261083  RH  044%=      5-min Rain = 0
KCL1 100143Z 01007KT 03/M08 A3035 RMK A01 T00261083  RH  045%=      5-min Rain = 0
KCL1 100144Z 01007KT 03/M08 A3035 RMK A01 T00251084  RH  045%=      5-min Rain = 0
KCL1 100145Z 01007KT 02/M08 A3035 RMK A01 T00241084  RH  045%=      5-min Rain = 0
KCL1 100146Z 01006KT 02/M09 A3035 RMK A01 T00241085  RH  044%=      5-min Rain = 0
KCL1 100147Z 01006KT 02/M09 A3035 RMK A01 T00241085  RH  044%=      5-min Rain = 0
KCL1 100148Z 01006KT 02/M09 A3035 RMK A01 T00241086  RH  044%=      5-min Rain = 0
KCL1 100149Z 01006KT 02/M09 A3035 RMK A01 T00231087  RH  044%=      5-min Rain = 0
KCL1 100150Z 01006KT 02/M09 A3035 RMK A01 T00231088  RH  044%=      5-min Rain = 0
KCL1 100151Z 01006KT 02/M09 A3035 RMK A01 T00241088  RH  044%=      5-min Rain = 0
KCL1 100152Z 01006KT 02/M09 A3035 RMK A01 T00231088  RH  043%=      5-min Rain = 0
KCL1 100153Z 01006KT 02/M09 A3035 RMK A01 T00241088  RH  043%=      5-min Rain = 0
KCL1 100154Z 01006KT 03/M09 A3035 RMK A01 T00251088  RH  043%=      5-min Rain = 0
KCL1 100155Z 01006KT 03/M09 A3035 RMK A01 T00251088  RH  043%=      5-min Rain = 0
KCL1 100156Z 02006KT 03/M09 A3035 RMK A01 T00261088  RH  043%=      5-min Rain = 0
KCL1 100157Z 02006KT 03/M09 A3035 RMK A01 T00261089  RH  043%=      5-min Rain = 0
KCL1 100158Z 02006KT 03/M09 A3035 RMK A01 T00261089  RH  042%=      5-min Rain = 0
KCL1 100159Z 02007KT 03/M09 A3035 RMK A01 T00261089  RH  042%=      5-min Rain = 0
KCL1 100200Z 02006KT 03/M09 A3035 RMK A01 T00261089  RH  042%=      5-min Rain = 0
KCL1 100201Z 03007KT 03/M09 A3035 RMK A01 T00251089  RH  043%=      5-min Rain = 0
KCL1 100202Z 03007KT 03/M09 A3034 RMK A01 T00261089  RH  043%=      5-min Rain = 0
KCL1 100203Z 03007KT 03/M09 A3034 RMK A01 T00251089  RH  043%=      5-min Rain = 0
KCL1 100204Z 03007KT 03/M09 A3034 RMK A01 T00251089  RH  043%=      5-min Rain = 0
KCL1 100205Z 03007KT 02/M09 A3034 RMK A01 T00241089  RH  043%=      5-min Rain = 0
KCL1 100206Z 03007KT 02/M09 A3034 RMK A01 T00241090  RH  043%=      5-min Rain = 0
KCL1 100207Z 03007KT 02/M09 A3034 RMK A01 T00241090  RH  043%=      5-min Rain = 0
KCL1 100208Z 03007KT 02/M09 A3034 RMK A01 T00241090  RH  043%=      5-min Rain = 0
KCL1 100209Z 03007KT 02/M09 A3035 RMK A01 T00241090  RH  043%=      5-min Rain = 0
KCL1 100210Z 03007KT 02/M09 A3035 RMK A01 T00241090  RH  043%=      5-min Rain = 0
KCL1 100211Z 02007KT 02/M09 A3035 RMK A01 T00221090  RH  043%=      5-min Rain = 0
KCL1 100212Z 02008KT 02/M09 A3035 RMK A01 T00201091  RH  044%=      5-min Rain = 0
KCL1 100213Z 02008KT 02/M09 A3035 RMK A01 T00191090  RH  044%=      5-min Rain = 0
KCL1 100214Z 02008KT 02/M09 A3035 RMK A01 T00191089  RH  044%=      5-min Rain = 0
KCL1 100215Z 02008KT 02/M09 A3035 RMK A01 T00201089  RH  044%=      5-min Rain = 0
KCL1 100216Z 02008KT 02/M09 A3035 RMK A01 T00201089  RH  044%=      5-min Rain = 0
KCL1 100217Z 02008KT 02/M09 A3035 RMK A01 T00201088  RH  044%=      5-min Rain = 0
KCL1 100218Z 02008KT 02/M09 A3035 RMK A01 T00201089  RH  044%=      5-min Rain = 0
KCL1 100219Z 01009KT 02/M09 A3035 RMK A01 T00211088  RH  044%=      5-min Rain = 0
KCL1 100220Z 01008KT 02/M09 A3035 RMK A01 T00191089  RH  045%=      5-min Rain = 0
KCL1 100221Z 02007KT 02/M09 A3035 RMK A01 T00161090  RH  045%=      5-min Rain = 0
KCL1 100222Z 02008KT 02/M09 A3034 RMK A01 T00161089  RH  046%=      5-min Rain = 0
KCL1 100223Z 02008KT 02/M09 A3034 RMK A01 T00161089  RH  046%=      5-min Rain = 0
KCL1 100224Z 02008KT 02/M09 A3035 RMK A01 T00151089  RH  046%=      5-min Rain = 0
KCL1 100225Z 02008KT 02/M09 A3035 RMK A01 T00151089  RH  046%=      5-min Rain = 0
KCL1 100226Z 02007KT 02/M09 A3035 RMK A01 T00151089  RH  046%=      5-min Rain = 0
KCL1 100227Z 02007KT 02/M09 A3035 RMK A01 T00161088  RH  046%=      5-min Rain = 0
KCL1 100228Z 02007KT 02/M09 A3035 RMK A01 T00161089  RH  046%=      5-min Rain = 0
KCL1 100229Z 02007KT 02/M09 A3035 RMK A01 T00161089  RH  046%=      5-min Rain = 0
KCL1 100230Z 02007KT 02/M09 A3035 RMK A01 T00161089  RH  046%=      5-min Rain = 0
KCL1 100231Z 02007KT 02/M09 A3035 RMK A01 T00161088  RH  046%=      5-min Rain = 0
KCL1 100232Z 02008KT 02/M09 A3035 RMK A01 T00171088  RH  046%=      5-min Rain = 0
KCL1 100233Z 02008KT 02/M09 A3035 RMK A01 T00191087  RH  045%=      5-min Rain = 0
KCL1 100234Z 01008KT 02/M09 A3035 RMK A01 T00201087  RH  045%=      5-min Rain = 0
KCL1 100235Z 01008KT 02/M09 A3035 RMK A01 T00191088  RH  045%=      5-min Rain = 0
KCL1 100236Z 01008KT 02/M09 A3035 RMK A01 T00191087  RH  045%=      5-min Rain = 0
KCL1 100237Z 01008KT 02/M09 A3035 RMK A01 T00181088  RH  045%=      5-min Rain = 0
KCL1 100238Z 01008KT 02/M09 A3035 RMK A01 T00171088  RH  046%=      5-min Rain = 0
KCL1 100239Z 01008KT 02/M09 A3035 RMK A01 T00161088  RH  046%=      5-min Rain = 0
KCL1 100240Z 00008KT 02/M09 A3035 RMK A01 T00161088  RH  046%=      5-min Rain = 0
KCL1 100241Z 00009KT 02/M09 A3035 RMK A01 T00151088  RH  046%=      5-min Rain = 0
KCL1 100242Z 01008KT 02/M09 A3035 RMK A01 T00151087  RH  047%=      5-min Rain = 0
KCL1 100243Z 01008KT 01/M09 A3035 RMK A01 T00141087  RH  047%=      5-min Rain = 0
KCL1 100244Z 01008KT 01/M09 A3035 RMK A01 T00141087  RH  047%=      5-min Rain = 0
KCL1 100245Z 00008KT 01/M09 A3035 RMK A01 T00141087  RH  047%=      5-min Rain = 0
KCL1 100246Z 00008KT 01/M09 A3036 RMK A01 T00141086  RH  047%=      5-min Rain = 0
KCL1 100247Z 00008KT 01/M09 A3036 RMK A01 T00141086  RH  047%=      5-min Rain = 0
KCL1 100248Z 00008KT 01/M09 A3036 RMK A01 T00131086  RH  048%=      5-min Rain = 0
KCL1 100249Z 00008KT 01/M09 A3036 RMK A01 T00121086  RH  048%=      5-min Rain = 0
KCL1 100250Z 00008KT 01/M09 A3036 RMK A01 T00111086  RH  048%=      5-min Rain = 0
KCL1 100251Z 00008KT 01/M09 A3036 RMK A01 T00111085  RH  049%=      5-min Rain = 0
KCL1 100252Z 00008KT 01/M09 A3036 RMK A01 T00101085  RH  049%=      5-min Rain = 0
KCL1 100253Z 00007KT 01/M09 A3036 RMK A01 T00101085  RH  049%=      5-min Rain = 0
KCL1 100254Z 00007KT 01/M09 A3036 RMK A01 T00111085  RH  049%=      5-min Rain = 0
KCL1 100255Z 00007KT 01/M08 A3035 RMK A01 T00121084  RH  049%=      5-min Rain = 0
KCL1 100256Z 01007KT 01/M08 A3036 RMK A01 T00131083  RH  049%=      5-min Rain = 0
KCL1 100257Z 00007KT 01/M08 A3036 RMK A01 T00141083  RH  048%=      5-min Rain = 0
KCL1 100258Z 00007KT 01/M08 A3036 RMK A01 T00141083  RH  048%=      5-min Rain = 0
KCL1 100259Z 36007KT 02/M08 A3036 RMK A01 T00151083  RH  048%=      5-min Rain = 0
KCL1 100300Z 36007KT 02/M08 A3036 RMK A01 T00161083  RH  048%=      5-min Rain = 0
KCL1 100301Z 00007KT 02/M08 A3036 RMK A01 T00151083  RH  048%=      5-min Rain = 0
KCL1 100302Z 00006KT 02/M08 A3035 RMK A01 T00151084  RH  048%=      5-min Rain = 0
KCL1 100303Z 00006KT 02/M08 A3035 RMK A01 T00151084  RH  048%=      5-min Rain = 0
KCL1 100304Z 00006KT 02/M08 A3035 RMK A01 T00151084  RH  048%=      5-min Rain = 0
KCL1 100305Z 00006KT 02/M08 A3035 RMK A01 T00161084  RH  048%=      5-min Rain = 0
KCL1 100306Z 00006KT 02/M08 A3035 RMK A01 T00161084  RH  047%=      5-min Rain = 0
KCL1 100307Z 00007KT 02/M08 A3036 RMK A01 T00171084  RH  047%=      5-min Rain = 0
KCL1 100308Z 36007KT 02/M08 A3036 RMK A01 T00171084  RH  047%=      5-min Rain = 0
KCL1 100309Z 36007KT 02/M08 A3035 RMK A01 T00171084  RH  047%=      5-min Rain = 0
KCL1 100310Z 00006KT 02/M08 A3035 RMK A01 T00171084  RH  047%=      5-min Rain = 0
KCL1 100311Z 00006KT 02/M08 A3035 RMK A01 T00171084  RH  047%=      5-min Rain = 0
KCL1 100312Z 00006KT 02/M08 A3035 RMK A01 T00171084  RH  047%=      5-min Rain = 0
KCL1 100313Z 01005KT 02/M08 A3035 RMK A01 T00171084  RH  047%=      5-min Rain = 0
KCL1 100314Z 01005KT 02/M08 A3035 RMK A01 T00181084  RH  047%=      5-min Rain = 0
KCL1 100315Z 01005KT 02/M08 A3035 RMK A01 T00181084  RH  047%=      5-min Rain = 0
KCL1 100316Z 01005KT 02/M08 A3035 RMK A01 T00181084  RH  047%=      5-min Rain = 0
KCL1 100317Z 01006KT 02/M08 A3035 RMK A01 T00181084  RH  047%=      5-min Rain = 0
KCL1 100318Z 01005KT 02/M08 A3035 RMK A01 T00181084  RH  047%=      5-min Rain = 0
KCL1 100319Z 01005KT 02/M08 A3035 RMK A01 T00191084  RH  046%=      5-min Rain = 0
KCL1 100320Z 01005KT 02/M08 A3035 RMK A01 T00201084  RH  046%=      5-min Rain = 0
KCL1 100321Z 01005KT 02/M08 A3035 RMK A01 T00201084  RH  046%=      5-min Rain = 0
KCL1 100322Z 01005KT 02/M08 A3035 RMK A01 T00201084  RH  046%=      5-min Rain = 0
KCL1 100323Z 00005KT 02/M09 A3035 RMK A01 T00201085  RH  046%=      5-min Rain = 0
KCL1 100324Z 00004KT 02/M09 A3035 RMK A01 T00201085  RH  046%=      5-min Rain = 0
KCL1 100325Z 00004KT 02/M09 A3035 RMK A01 T00201085  RH  046%=      5-min Rain = 0
KCL1 100326Z 00004KT 02/M09 A3035 RMK A01 T00201085  RH  046%=      5-min Rain = 0
KCL1 100327Z 00004KT 02/M09 A3035 RMK A01 T00201085  RH  046%=      5-min Rain = 0
KCL1 100328Z 00004KT 02/M09 A3035 RMK A01 T00211085  RH  045%=      5-min Rain = 0
KCL1 100329Z 00004KT 02/M09 A3035 RMK A01 T00221085  RH  045%=      5-min Rain = 0
KCL1 100330Z 00004KT 02/M09 A3035 RMK A01 T00221086  RH  045%=      5-min Rain = 0
KCL1 100331Z 36004KT 02/M09 A3035 RMK A01 T00231086  RH  045%=      5-min Rain = 0
KCL1 100332Z 36004KT 02/M09 A3035 RMK A01 T00231086  RH  044%=      5-min Rain = 0
KCL1 100333Z 35005KT 02/M09 A3035 RMK A01 T00241086  RH  044%=      5-min Rain = 0
KCL1 100334Z 35005KT 02/M09 A3035 RMK A01 T00241086  RH  044%=      5-min Rain = 0
KCL1 100335Z 35005KT 02/M09 A3035 RMK A01 T00231086  RH  044%=      5-min Rain = 0
KCL1 100336Z 35005KT 02/M09 A3035 RMK A01 T00221087  RH  044%=      5-min Rain = 0
KCL1 100337Z 36005KT 02/M09 A3035 RMK A01 T00211087  RH  045%=      5-min Rain = 0
KCL1 100338Z 36005KT 02/M09 A3035 RMK A01 T00201086  RH  045%=      5-min Rain = 0
KCL1 100339Z 00004KT 02/M09 A3035 RMK A01 T00201086  RH  045%=      5-min Rain = 0
KCL1 100340Z 01004KT 02/M09 A3035 RMK A01 T00211086  RH  045%=      5-min Rain = 0
KCL1 100341Z 01004KT 02/M09 A3035 RMK A01 T00211086  RH  045%=      5-min Rain = 0
KCL1 100342Z 01005KT 02/M09 A3035 RMK A01 T00211086  RH  045%=      5-min Rain = 0
KCL1 100343Z 01005KT 02/M09 A3035 RMK A01 T00201087  RH  045%=      5-min Rain = 0
KCL1 100344Z 01005KT 02/M09 A3035 RMK A01 T00191087  RH  045%=      5-min Rain = 0
KCL1 100345Z 00005KT 02/M09 A3035 RMK A01 T00181087  RH  046%=      5-min Rain = 0
KCL1 100346Z 00005KT 02/M09 A3035 RMK A01 T00181086  RH  046%=      5-min Rain = 0
KCL1 100347Z 00006KT 02/M09 A3035 RMK A01 T00181086  RH  046%=      5-min Rain = 0
KCL1 100348Z 00006KT 02/M09 A3035 RMK A01 T00181086  RH  046%=      5-min Rain = 0
KCL1 100349Z 00006KT 02/M09 A3035 RMK A01 T00181086  RH  046%=      5-min Rain = 0
KCL1 100350Z 00006KT 02/M09 A3035 RMK A01 T00181086  RH  046%=      5-min Rain = 0
KCL1 100351Z 00005KT 02/M09 A3035 RMK A01 T00171086  RH  046%=      5-min Rain = 0
KCL1 100352Z 00005KT 02/M09 A3035 RMK A01 T00171086  RH  046%=      5-min Rain = 0
KCL1 100353Z 00005KT 02/M09 A3035 RMK A01 T00181086  RH  046%=      5-min Rain = 0
KCL1 100354Z 00005KT 02/M09 A3036 RMK A01 T00191086  RH  046%=      5-min Rain = 0
KCL1 100355Z 00005KT 02/M09 A3036 RMK A01 T00201086  RH  046%=      5-min Rain = 0
KCL1 100356Z 00006KT 02/M09 A3036 RMK A01 T00201086  RH  046%=      5-min Rain = 0
KCL1 100357Z 36006KT 02/M09 A3036 RMK A01 T00191086  RH  046%=      5-min Rain = 0
KCL1 100358Z 35006KT 02/M09 A3036 RMK A01 T00181086  RH  046%=      5-min Rain = 0
KCL1 100359Z 36006KT 02/M09 A3035 RMK A01 T00171086  RH  046%=      5-min Rain = 0
KCL1 100400Z 35006KT 02/M09 A3035 RMK A01 T00161087  RH  046%=      5-min Rain = 0
KCL1 100401Z 36005KT 02/M09 A3035 RMK A01 T00161086  RH  046%=      5-min Rain = 0
KCL1 100402Z 00005KT 02/M09 A3035 RMK A01 T00161087  RH  046%=      5-min Rain = 0
KCL1 100403Z 00005KT 02/M09 A3035 RMK A01 T00161086  RH  047%=      5-min Rain = 0
KCL1 100404Z 36005KT 02/M09 A3035 RMK A01 T00161086  RH  046%=      5-min Rain = 0
KCL1 100405Z 00006KT 02/M09 A3035 RMK A01 T00161087  RH  046%=      5-min Rain = 0
KCL1 100406Z 00006KT 02/M09 A3035 RMK A01 T00161087  RH  046%=      5-min Rain = 0
KCL1 100407Z 00006KT 02/M09 A3035 RMK A01 T00171087  RH  046%=      5-min Rain = 0
KCL1 100408Z 00006KT 02/M09 A3035 RMK A01 T00171087  RH  046%=      5-min Rain = 0
KCL1 100409Z 00006KT 02/M09 A3035 RMK A01 T00171087  RH  046%=      5-min Rain = 0
KCL1 100410Z 36006KT 02/M09 A3035 RMK A01 T00171087  RH  046%=      5-min Rain = 0
KCL1 100411Z 35006KT 02/M09 A3035 RMK A01 T00161087  RH  046%=      5-min Rain = 0
KCL1 100412Z 35006KT 01/M09 A3035 RMK A01 T00141087  RH  047%=      5-min Rain = 0
KCL1 100413Z 36006KT 01/M09 A3035 RMK A01 T00131088  RH  047%=      5-min Rain = 0
KCL1 100414Z 35006KT 01/M09 A3035 RMK A01 T00121087  RH  047%=      5-min Rain = 0
KCL1 100415Z 35006KT 01/M09 A3035 RMK A01 T00121087  RH  048%=      5-min Rain = 0
KCL1 100416Z 35006KT 01/M09 A3035 RMK A01 T00111087  RH  048%=      5-min Rain = 0
KCL1 100417Z 35006KT 01/M09 A3036 RMK A01 T00101088  RH  048%=      5-min Rain = 0
KCL1 100418Z 35006KT 01/M09 A3036 RMK A01 T00091088  RH  048%=      5-min Rain = 0
KCL1 100419Z 35006KT 01/M09 A3036 RMK A01 T00091087  RH  049%=      5-min Rain = 0
KCL1 100420Z 35006KT 01/M09 A3036 RMK A01 T00081087  RH  049%=      5-min Rain = 0
KCL1 100421Z 35006KT 01/M09 A3036 RMK A01 T00081087  RH  049%=      5-min Rain = 0
KCL1 100422Z 35006KT 01/M09 A3036 RMK A01 T00081087  RH  049%=      5-min Rain = 0
KCL1 100423Z 35006KT 01/M09 A3035 RMK A01 T00081087  RH  049%=      5-min Rain = 0
KCL1 100424Z 35006KT 01/M09 A3035 RMK A01 T00091087  RH  049%=      5-min Rain = 0
KCL1 100425Z 35005KT 01/M09 A3035 RMK A01 T00081087  RH  049%=      5-min Rain = 0
KCL1 100426Z 35005KT 01/M09 A3035 RMK A01 T00081087  RH  049%=      5-min Rain = 0
KCL1 100427Z 35005KT 01/M09 A3035 RMK A01 T00081087  RH  049%=      5-min Rain = 0
KCL1 100428Z 35005KT 01/M09 A3036 RMK A01 T00071087  RH  049%=      5-min Rain = 0
KCL1 100429Z 35006KT 01/M09 A3036 RMK A01 T00071087  RH  049%=      5-min Rain = 0
KCL1 100430Z 35005KT 01/M09 A3036 RMK A01 T00071087  RH  049%=      5-min Rain = 0
KCL1 100431Z 35005KT 01/M09 A3036 RMK A01 T00071087  RH  049%=      5-min Rain = 0
KCL1 100432Z 35005KT 01/M09 A3036 RMK A01 T00071087  RH  049%=      5-min Rain = 0
KCL1 100433Z 35005KT 01/M09 A3036 RMK A01 T00061088  RH  049%=      5-min Rain = 0
KCL1 100434Z 35005KT 01/M09 A3036 RMK A01 T00061087  RH  050%=      5-min Rain = 0
KCL1 100435Z 35005KT 01/M09 A3035 RMK A01 T00061087  RH  050%=      5-min Rain = 0
KCL1 100436Z 35005KT 01/M09 A3035 RMK A01 T00061088  RH  050%=      5-min Rain = 0
KCL1 100437Z 35004KT 01/M09 A3035 RMK A01 T00061087  RH  050%=      5-min Rain = 0
KCL1 100438Z 35005KT 01/M09 A3035 RMK A01 T00061088  RH  050%=      5-min Rain = 0
KCL1 100439Z 34004KT 01/M09 A3035 RMK A01 T00061088  RH  050%=      5-min Rain = 0
KCL1 100440Z 35004KT 01/M09 A3035 RMK A01 T00061088  RH  050%=      5-min Rain = 0
KCL1 100441Z 34004KT 01/M09 A3035 RMK A01 T00061087  RH  050%=      5-min Rain = 0
KCL1 100442Z 34004KT 01/M09 A3035 RMK A01 T00071087  RH  049%=      5-min Rain = 0
KCL1 100443Z 34004KT 01/M09 A3035 RMK A01 T00081087  RH  049%=      5-min Rain = 0
KCL1 100444Z 34004KT 01/M09 A3035 RMK A01 T00091086  RH  049%=      5-min Rain = 0
KCL1 100445Z 34004KT 01/M09 A3035 RMK A01 T00101087  RH  048%=      5-min Rain = 0
KCL1 100446Z 34004KT 01/M09 A3035 RMK A01 T00111087  RH  048%=      5-min Rain = 0
KCL1 100447Z 34004KT 01/M09 A3035 RMK A01 T00111087  RH  048%=      5-min Rain = 0
KCL1 100448Z 34004KT 01/M09 A3035 RMK A01 T00121086  RH  048%=      5-min Rain = 0
KCL1 100449Z 34004KT 01/M09 A3035 RMK A01 T00121087  RH  048%=      5-min Rain = 0
KCL1 100450Z 34004KT 01/M09 A3036 RMK A01 T00121087  RH  048%=      5-min Rain = 0
KCL1 100451Z 34004KT 01/M09 A3036 RMK A01 T00121087  RH  048%=      5-min Rain = 0
KCL1 100452Z 33004KT 01/M09 A3036 RMK A01 T00131087  RH  047%=      5-min Rain = 0
KCL1 100453Z 33004KT 01/M09 A3036 RMK A01 T00141087  RH  047%=      5-min Rain = 0
KCL1 100454Z 33004KT 01/M09 A3036 RMK A01 T00141087  RH  047%=      5-min Rain = 0
KCL1 100455Z 32003KT 01/M09 A3036 RMK A01 T00141087  RH  047%=      5-min Rain = 0
KCL1 100456Z 32003KT 01/M09 A3036 RMK A01 T00131088  RH  047%=      5-min Rain = 0
KCL1 100457Z 30002KT 01/M09 A3036 RMK A01 T00121088  RH  047%=      5-min Rain = 0
KCL1 100458Z 28002KT 01/M09 A3036 RMK A01 T00131088  RH  047%=      5-min Rain = 0
KCL1 100459Z 27002KT 02/M09 A3036 RMK A01 T00151087  RH  047%=      5-min Rain = 0
KCL1 100500Z 26002KT 02/M09 A3036 RMK A01 T00181086  RH  046%=      5-min Rain = 0
KCL1 100501Z 26002KT 02/M09 A3036 RMK A01 T00201086  RH  045%=      5-min Rain = 0
KCL1 100502Z 27002KT 02/M09 A3036 RMK A01 T00221086  RH  045%=      5-min Rain = 0
KCL1 100503Z 26002KT 02/M09 A3036 RMK A01 T00241086  RH  044%=      5-min Rain = 0
KCL1 100504Z 27002KT 03/M09 A3036 RMK A01 T00261086  RH  043%=      5-min Rain = 0
KCL1 100505Z 28002KT 03/M09 A3036 RMK A01 T00271086  RH  043%=      5-min Rain = 0
KCL1 100506Z 28002KT 03/M09 A3036 RMK A01 T00291087  RH  042%=      5-min Rain = 0
KCL1 100507Z 30002KT 03/M09 A3036 RMK A01 T00301087  RH  042%=      5-min Rain = 0
KCL1 100508Z 30001KT 03/M09 A3036 RMK A01 T00311087  RH  042%=      5-min Rain = 0
KCL1 100509Z 34002KT 03/M09 A3036 RMK A01 T00311087  RH  041%=      5-min Rain = 0
KCL1 100510Z 35002KT 03/M09 A3036 RMK A01 T00321087  RH  041%=      5-min Rain = 0
KCL1 100511Z 36002KT 03/M09 A3036 RMK A01 T00321087  RH  041%=      5-min Rain = 0
KCL1 100512Z 36003KT 03/M09 A3036 RMK A01 T00301088  RH  041%=      5-min Rain = 0
KCL1 100513Z 34004KT 03/M09 A3036 RMK A01 T00251090  RH  042%=      5-min Rain = 0
KCL1 100514Z 35004KT 02/M09 A3036 RMK A01 T00181091  RH  044%=      5-min Rain = 0
KCL1 100515Z 35004KT 01/M09 A3036 RMK A01 T00131092  RH  046%=      5-min Rain = 0
KCL1 100516Z 35004KT 01/M09 A3036 RMK A01 T00111091  RH  047%=      5-min Rain = 0
KCL1 100517Z 35004KT 01/M09 A3036 RMK A01 T00081091  RH  048%=      5-min Rain = 0
KCL1 100518Z 35004KT 01/M09 A3036 RMK A01 T00061091  RH  048%=      5-min Rain = 0
KCL1 100519Z 35004KT 01/M09 A3036 RMK A01 T00051090  RH  049%=      5-min Rain = 0
KCL1 100520Z 35004KT 01/M09 A3036 RMK A01 T00051090  RH  049%=      5-min Rain = 0
KCL1 100521Z 34004KT 01/M09 A3036 RMK A01 T00061089  RH  049%=      5-min Rain = 0
KCL1 100522Z 34004KT 01/M09 A3036 RMK A01 T00061089  RH  049%=      5-min Rain = 0
KCL1 100523Z 34004KT 01/M09 A3036 RMK A01 T00071089  RH  049%=      5-min Rain = 0
KCL1 100524Z 34004KT 01/M09 A3036 RMK A01 T00071089  RH  049%=      5-min Rain = 0
KCL1 100525Z 34004KT 01/M09 A3036 RMK A01 T00071089  RH  049%=      5-min Rain = 0
KCL1 100526Z 34004KT 01/M09 A3036 RMK A01 T00071089  RH  049%=      5-min Rain = 0
KCL1 100527Z 34003KT 01/M09 A3036 RMK A01 T00071088  RH  049%=      5-min Rain = 0
KCL1 100528Z 34003KT 01/M09 A3036 RMK A01 T00071088  RH  049%=      5-min Rain = 0
KCL1 100529Z 33003KT 01/M09 A3036 RMK A01 T00071088  RH  049%=      5-min Rain = 0
KCL1 100530Z 33003KT 01/M09 A3036 RMK A01 T00071088  RH  049%=      5-min Rain = 0
KCL1 100531Z 33003KT 01/M09 A3036 RMK A01 T00081088  RH  049%=      5-min Rain = 0
KCL1 100532Z 33003KT 01/M09 A3035 RMK A01 T00091087  RH  048%=      5-min Rain = 0
KCL1 100533Z 32003KT 01/M09 A3035 RMK A01 T00111087  RH  048%=      5-min Rain = 0
KCL1 100534Z 32003KT 01/M09 A3035 RMK A01 T00121087  RH  048%=      5-min Rain = 0
KCL1 100535Z 32003KT 01/M09 A3035 RMK A01 T00131087  RH  048%=      5-min Rain = 0
KCL1 100536Z 32003KT 01/M09 A3035 RMK A01 T00131087  RH  047%=      5-min Rain = 0
KCL1 100537Z 31003KT 01/M09 A3035 RMK A01 T00141087  RH  047%=      5-min Rain = 0
KCL1 100538Z 32003KT 01/M09 A3035 RMK A01 T00141087  RH  047%=      5-min Rain = 0
KCL1 100539Z 32003KT 02/M09 A3035 RMK A01 T00151087  RH  047%=      5-min Rain = 0
KCL1 100540Z 32003KT 02/M09 A3035 RMK A01 T00151087  RH  047%=      5-min Rain = 0
KCL1 100541Z 32003KT 01/M09 A3035 RMK A01 T00141087  RH  047%=      5-min Rain = 0
KCL1 100542Z 31003KT 01/M09 A3035 RMK A01 T00141087  RH  047%=      5-min Rain = 0
KCL1 100543Z 31003KT 01/M09 A3035 RMK A01 T00141087  RH  047%=      5-min Rain = 0
KCL1 100544Z 31003KT 01/M09 A3035 RMK A01 T00141087  RH  047%=      5-min Rain = 0
KCL1 100545Z 31003KT 02/M09 A3035 RMK A01 T00151087  RH  047%=      5-min Rain = 0
KCL1 100546Z 31003KT 02/M09 A3035 RMK A01 T00151087  RH  047%=      5-min Rain = 0
KCL1 100547Z 32004KT 01/M09 A3035 RMK A01 T00141087  RH  047%=      5-min Rain = 0
KCL1 100548Z 31004KT 01/M09 A3035 RMK A01 T00141087  RH  047%=      5-min Rain = 0
KCL1 100549Z 31004KT 01/M09 A3035 RMK A01 T00121088  RH  047%=      5-min Rain = 0
KCL1 100550Z 30004KT 01/M09 A3035 RMK A01 T00111088  RH  048%=      5-min Rain = 0
KCL1 100551Z 30003KT 01/M09 A3035 RMK A01 T00101088  RH  048%=      5-min Rain = 0
KCL1 100552Z 26002KT 01/M09 A3035 RMK A01 T00091088  RH  048%=      5-min Rain = 0
KCL1 100553Z 25002KT 01/M09 A3035 RMK A01 T00091088  RH  049%=      5-min Rain = 0
KCL1 100554Z 22002KT 01/M09 A3035 RMK A01 T00081087  RH  049%=      5-min Rain = 0
KCL1 100555Z 22003KT 01/M09 A3035 RMK A01 T00081088  RH  049%=      5-min Rain = 0
KCL1 100556Z 22003KT 01/M09 A3035 RMK A01 T00081088  RH  048%=      5-min Rain = 0
KCL1 100557Z 23003KT 01/M09 A3035 RMK A01 T00101087  RH  048%=      5-min Rain = 0
KCL1 100558Z 23003KT 01/M09 A3035 RMK A01 T00121087  RH  047%=      5-min Rain = 0
KCL1 100559Z 23003KT 01/M09 A3035 RMK A01 T00141088  RH  047%=      5-min Rain = 0

Page generated in 0.0941 seconds.